Latitude: N 50° 09' 49" Longitude: W 05° 11' 53" Elevation: 168m ASL

There are 2 visitors online

Adverts

<- Previous Day | Today | Next Day ->

All Data for 20 March 2018

Time
A - D
Temp
A - D
Dew Point
A - D
Humidity
A - D
Pressure
A - D
Wind
A - D
Wind Dir Gust
A - D
Rain Rate
A - D
Rain Total
00:01 -0.2 -3.6 78 1023.5 4.5 N 8.3 0.0 0.0
00:02 -0.2 -3.6 78 1023.3 7.6 N 8.3 0.0 0.0
00:03 -0.2 -3.6 78 1023.6 5.4 NE 8.3 0.0 0.0
00:05 -0.2 -3.6 78 1023.5 5.4 NE 8.3 0.0 0.0
00:06 -0.3 -3.7 78 1023.5 5.4 N 8.3 0.0 0.0
00:08 -0.3 -3.7 78 1023.4 8.3 N 8.3 0.0 0.0
00:09 -0.3 -3.7 78 1023.5 8.3 NE 8.3 0.0 0.0
00:10 -0.3 -3.7 78 1023.5 7.6 NE 9.2 0.0 0.0
00:12 -0.3 -3.7 78 1023.6 5.4 NE 9.2 0.0 0.0
00:13 -0.4 -3.8 78 1023.6 6.0 NE 9.2 0.0 0.0
00:15 -0.4 -3.8 78 1023.7 5.4 NE 9.2 0.0 0.0
00:16 -0.4 -3.8 78 1023.6 6.0 N 9.2 0.0 0.0
00:17 -0.4 -3.6 79 1023.6 6.0 N 9.2 0.0 0.0
00:18 -0.4 -3.8 78 1023.6 4.5 N 9.2 0.0 0.0
00:19 -0.4 -3.6 79 1023.5 6.0 NE 9.2 0.0 0.0
00:20 -0.4 -3.8 78 1023.7 6.0 N 7.6 0.0 0.0
00:21 -0.4 -3.8 78 1023.6 6.9 N 6.9 0.0 0.0
00:22 -0.5 -3.9 78 1023.7 5.4 N 6.9 0.0 0.0
00:23 -0.5 -3.9 78 1023.7 5.4 N 6.9 0.0 0.0
00:24 -0.5 -3.9 78 1023.7 5.4 N 6.9 0.0 0.0
00:25 -0.5 -3.7 79 1023.7 6.9 N 6.9 0.0 0.0
00:26 -0.5 -3.7 79 1023.7 6.0 NE 6.9 0.0 0.0
00:27 -0.5 -3.7 79 1023.7 5.4 N 6.9 0.0 0.0
00:28 -0.5 -3.7 79 1023.7 5.4 NE 6.9 0.0 0.0
00:29 -0.6 -3.8 79 1023.7 5.4 N 6.9 0.0 0.0
00:31 -0.6 -3.8 79 1024.0 4.5 NE 6.9 0.0 0.0
00:32 -0.6 -3.8 79 1023.9 4.5 N 6.9 0.0 0.0
00:33 -0.6 -3.8 79 1023.8 3.8 NE 6.9 0.0 0.0
00:34 -0.6 -3.8 79 1024.0 3.8 NE 6.9 0.0 0.0
00:35 -0.6 -3.8 79 1024.0 6.0 NE 6.9 0.0 0.0
00:36 -0.6 -3.8 79 1024.0 5.4 N 6.9 0.0 0.0
00:37 -0.7 -3.9 79 1023.9 6.9 N 6.9 0.0 0.0
00:38 -0.7 -3.9 79 1024.0 6.0 N 6.9 0.0 0.0
00:39 -0.7 -3.9 79 1024.0 6.0 NE 6.9 0.0 0.0
00:40 -0.7 -3.9 79 1023.9 4.5 N 6.9 0.0 0.0
00:41 -0.7 -3.9 79 1024.0 6.0 NE 6.9 0.0 0.0
00:42 -0.8 -4.0 79 1024.0 4.5 N 6.9 0.0 0.0
00:43 -0.8 -4.0 79 1024.0 4.5 N 6.9 0.0 0.0
00:44 -0.8 -4.0 79 1024.1 4.5 NE 6.9 0.0 0.0
00:45 -0.8 -4.0 79 1024.0 7.6 NE 7.6 0.0 0.0
00:46 -0.8 -4.0 79 1024.2 6.0 NE 7.6 0.0 0.0
00:47 -0.8 -4.0 79 1024.1 6.0 N 7.6 0.0 0.0
00:48 -0.8 -4.0 79 1024.2 4.5 N 7.6 0.0 0.0
00:49 -0.8 -4.0 79 1024.0 4.5 NE 7.6 0.0 0.0
00:51 -0.8 -4.0 79 1024.1 7.6 N 8.3 0.0 0.0
00:52 -0.8 -3.8 80 1024.2 9.2 NE 9.2 0.0 0.0
00:53 -0.8 -3.8 80 1024.1 6.0 NE 9.2 0.0 0.0
00:54 -0.8 -3.8 80 1024.2 7.6 N 9.2 0.0 0.0
00:55 -0.8 -3.8 80 1024.1 7.6 N 9.2 0.0 0.0
00:56 -0.9 -3.9 80 1024.2 8.3 NE 9.2 0.0 0.0
00:57 -0.9 -3.9 80 1024.0 7.6 N 10.7 0.0 0.0
00:58 -0.8 -3.8 80 1024.2 6.9 NE 10.7 0.0 0.0
00:59 -0.8 -3.8 80 1024.3 6.9 NE 10.7 0.0 0.0
01:00 -0.8 -3.8 80 1024.2 7.6 N 10.7 0.0 0.0
01:01 -0.8 -3.8 80 1024.4 8.3 N 10.7 0.0 0.0
01:02 -0.8 -3.8 80 1024.5 6.9 N 10.7 0.0 0.0
01:03 -0.8 -3.8 80 1024.4 7.6 NE 10.7 0.0 0.0
01:04 -0.8 -3.8 80 1024.5 6.0 NE 10.7 0.0 0.0
01:05 -0.8 -3.8 80 1024.4 6.0 NE 10.7 0.0 0.0
01:06 -0.8 -3.8 80 1024.6 6.0 NE 8.3 0.0 0.0
01:07 -0.8 -3.8 80 1024.5 6.0 NE 8.3 0.0 0.0
01:08 -0.8 -3.8 80 1024.4 6.0 NE 8.3 0.0 0.0
01:09 -0.8 -3.8 80 1024.5 6.0 NE 8.3 0.0 0.0
01:10 -0.8 -3.8 80 1024.5 6.9 NE 8.3 0.0 0.0
01:11 -0.8 -3.8 80 1024.6 6.9 N 8.3 0.0 0.0
01:12 -0.9 -3.9 80 1024.5 6.0 NE 8.3 0.0 0.0
01:13 -0.9 -3.9 80 1024.5 9.2 N 9.2 0.0 0.0
01:14 -0.9 -3.9 80 1024.7 6.0 N 9.2 0.0 0.0
01:15 -0.8 -3.8 80 1024.6 6.9 E 9.2 0.0 0.0
01:16 -0.9 -3.9 80 1024.6 6.9 NW 9.2 0.0 0.0
01:18 -0.9 -3.9 80 1024.7 4.5 NW 9.2 0.0 0.0
01:19 -0.9 -3.9 80 1024.7 3.8 NW 9.2 0.0 0.0
01:20 -0.9 -3.9 80 1024.7 4.5 NW 9.2 0.0 0.0
01:21 -0.9 -3.7 81 1024.7 6.0 NW 9.2 0.0 0.0
01:22 -0.9 -3.7 81 1024.6 3.8 NW 9.2 0.0 0.0
01:23 -0.9 -3.7 81 1024.7 4.5 NW 9.2 0.0 0.0
01:24 -0.9 -3.7 81 1024.7 4.5 NW 6.9 0.0 0.0
01:25 -0.9 -3.7 81 1024.7 5.4 NE 6.9 0.0 0.0
01:26 -0.9 -3.7 81 1024.6 4.5 NE 6.9 0.0 0.0
01:27 -0.9 -3.7 81 1024.6 4.5 NW 6.0 0.0 0.0
01:28 -0.9 -3.7 81 1024.6 6.0 NW 6.0 0.0 0.0
01:29 -0.9 -3.7 81 1024.7 4.5 NW 6.0 0.0 0.0
01:30 -1.0 -3.8 81 1024.7 5.4 N 6.0 0.0 0.0
01:31 -1.0 -3.8 81 1024.6 4.5 NE 6.0 0.0 0.0
01:32 -1.0 -3.8 81 1024.7 5.4 NE 6.0 0.0 0.0
01:33 -1.0 -3.8 81 1024.7 3.8 NE 6.0 0.0 0.0
01:34 -1.0 -3.8 81 1024.8 3.8 N 6.0 0.0 0.0
01:35 -1.0 -3.8 81 1024.8 3.8 N 6.0 0.0 0.0
01:36 -1.0 -3.8 81 1024.7 3.1 N 6.0 0.0 0.0
01:37 -1.0 -3.8 81 1024.8 5.4 N 6.0 0.0 0.0
01:38 -1.0 -3.8 81 1024.9 2.2 N 6.0 0.0 0.0
01:39 -1.0 -3.7 82 1025.0 3.1 N 6.0 0.0 0.0
01:40 -1.0 -3.8 81 1024.9 3.1 N 6.0 0.0 0.0
01:41 -1.0 -3.8 81 1024.9 3.1 N 6.0 0.0 0.0
01:42 -1.0 -3.7 82 1024.9 3.1 N 5.4 0.0 0.0
01:43 -1.0 -3.7 82 1024.9 4.5 N 5.4 0.0 0.0
01:45 -1.1 -3.8 82 1025.0 3.1 N 5.4 0.0 0.0
01:46 -1.1 -3.8 82 1025.0 4.5 N 5.4 0.0 0.0
01:47 -1.1 -3.8 82 1024.9 3.1 N 5.4 0.0 0.0
01:48 -1.1 -3.8 82 1024.8 3.8 NE 5.4 0.0 0.0
01:49 -1.1 -3.8 82 1024.8 4.5 NE 5.4 0.0 0.0
01:50 -1.1 -3.8 82 1024.9 3.8 NE 5.4 0.0 0.0
01:51 -1.1 -3.8 82 1024.9 5.4 NE 5.4 0.0 0.0
01:52 -1.2 -3.9 82 1025.0 4.5 N 5.4 0.0 0.0
01:53 -1.2 -3.9 82 1025.0 6.0 N 6.0 0.0 0.0
01:54 -1.2 -3.9 82 1024.8 5.4 NE 6.0 0.0 0.0
01:55 -1.2 -3.9 82 1024.9 4.5 N 6.0 0.0 0.0
01:56 -1.2 -3.9 82 1024.8 3.8 N 6.0 0.0 0.0
01:57 -1.2 -3.9 82 1024.9 3.8 NE 6.0 0.0 0.0
01:58 -1.2 -3.9 82 1024.8 3.1 NE 6.0 0.0 0.0
01:59 -1.2 -3.9 82 1024.7 3.8 NE 6.0 0.0 0.0
02:00 -1.2 -3.9 82 1024.8 6.0 N 6.0 0.0 0.0
02:01 -1.2 -3.9 82 1024.8 4.5 N 6.0 0.0 0.0
02:02 -1.2 -3.9 82 1024.9 4.5 N 6.0 0.0 0.0
02:03 -1.2 -3.9 82 1025.1 6.9 N 6.9 0.0 0.0
02:04 -1.2 -3.7 83 1024.8 6.0 N 6.9 0.0 0.0
02:05 -1.2 -3.7 83 1024.9 6.0 N 6.9 0.0 0.0
02:06 -1.2 -3.7 83 1024.8 6.0 N 6.9 0.0 0.0
02:08 -1.2 -3.7 83 1025.0 6.0 N 6.9 0.0 0.0
02:09 -1.2 -3.7 83 1024.9 6.0 N 6.9 0.0 0.0
02:10 -1.2 -3.7 83 1024.9 4.5 NE 6.9 0.0 0.0
02:11 -1.1 -3.6 83 1024.9 6.0 N 6.9 0.0 0.0
02:12 -1.1 -3.6 83 1024.9 5.4 NE 6.9 0.0 0.0
02:13 -1.1 -3.6 83 1024.9 5.4 N 6.9 0.0 0.0
02:14 -1.1 -3.6 83 1025.2 5.4 N 6.9 0.0 0.0
02:15 -1.1 -3.6 83 1025.2 4.5 NE 6.9 0.0 0.0
02:16 -1.1 -3.6 83 1025.2 3.8 NE 6.9 0.0 0.0
02:17 -1.1 -3.6 83 1025.2 4.5 N 6.9 0.0 0.0
02:18 -1.1 -3.6 83 1025.1 5.4 NE 7.6 0.0 0.0
02:19 -1.1 -3.6 83 1025.1 4.5 N 7.6 0.0 0.0
02:20 -1.1 -3.6 83 1025.2 3.8 NE 7.6 0.0 0.0
02:21 -1.1 -3.6 83 1025.2 4.5 N 7.6 0.0 0.0
02:23 -1.1 -3.6 83 1025.3 3.1 N 7.6 0.0 0.0
02:24 -1.1 -3.6 83 1025.2 1.6 N 7.6 0.0 0.0
02:25 -1.1 -3.6 83 1025.2 1.6 N 7.6 0.0 0.0
02:26 -1.1 -3.6 83 1025.3 1.6 N 7.6 0.0 0.0
02:27 -1.1 -3.6 83 1025.3 2.2 N 7.6 0.0 0.0
02:28 -1.1 -3.6 83 1025.3 2.2 N 7.6 0.0 0.0
02:29 -1.1 -3.6 83 1025.4 1.6 N 5.4 0.0 0.0
02:30 -1.1 -3.6 83 1025.4 1.6 N 5.4 0.0 0.0
02:31 -1.1 -3.6 83 1025.4 1.6 N 5.4 0.0 0.0
02:32 -1.1 -3.6 83 1025.2 3.1 N 5.4 0.0 0.0
02:33 -1.2 -3.7 83 1025.3 2.2 N 3.1 0.0 0.0
02:34 -1.2 -3.7 83 1025.2 3.1 N 3.1 0.0 0.0
02:35 -1.2 -3.7 83 1025.2 3.8 NE 3.8 0.0 0.0
02:36 -1.2 -3.7 83 1025.2 2.2 NE 3.8 0.0 0.0
02:37 -1.2 -3.7 83 1025.2 3.8 NE 3.8 0.0 0.0
02:38 -1.2 -3.7 83 1025.1 3.8 NE 3.8 0.0 0.0
02:39 -1.2 -3.7 83 1025.3 3.8 N 5.4 0.0 0.0
02:40 -1.3 -3.8 83 1025.4 2.2 N 5.4 0.0 0.0
02:41 -1.3 -3.8 83 1025.5 3.8 N 5.4 0.0 0.0
02:42 -1.3 -3.8 83 1025.4 3.1 N 5.4 0.0 0.0
02:43 -1.3 -3.8 83 1025.4 2.2 N 5.4 0.0 0.0
02:44 -1.3 -3.6 84 1025.3 2.2 N 5.4 0.0 0.0
02:45 -1.3 -3.8 83 1025.4 2.2 N 5.4 0.0 0.0
02:46 -1.3 -3.6 84 1025.4 1.6 N 5.4 0.0 0.0
02:48 -1.3 -3.6 84 1025.3 4.5 NE 5.4 0.0 0.0
02:49 -1.3 -3.6 84 1025.4 2.2 NE 5.4 0.0 0.0
02:50 -1.3 -3.6 84 1025.4 3.1 N 4.5 0.0 0.0
02:51 -1.4 -3.7 84 1025.4 3.8 N 4.5 0.0 0.0
02:52 -1.4 -3.7 84 1025.2 3.8 N 4.5 0.0 0.0
02:53 -1.4 -3.7 84 1025.5 2.2 N 4.5 0.0 0.0
02:54 -1.4 -3.7 84 1025.5 1.6 N 4.5 0.0 0.0
02:55 -1.4 -3.7 84 1025.4 1.6 N 4.5 0.0 0.0
02:56 -1.4 -3.7 84 1025.5 1.6 N 4.5 0.0 0.0
02:57 -1.5 -3.8 84 1025.5 0.7 N 4.5 0.0 0.0
02:58 -1.5 -3.8 84 1025.5 0.7 N 3.8 0.0 0.0
02:59 -1.5 -3.8 84 1025.4 2.2 N 3.8 0.0 0.0
03:00 -1.5 -3.8 84 1025.4 1.6 N 3.8 0.0 0.0
03:01 -1.5 -3.8 84 1025.4 1.6 N 3.8 0.0 0.0
03:02 -1.5 -3.8 84 1025.4 2.2 N 2.2 0.0 0.0
03:03 -1.5 -3.8 84 1025.4 2.2 N 2.2 0.0 0.0
03:04 -1.6 -3.9 84 1025.3 2.2 N 2.2 0.0 0.0
03:05 -1.6 -3.9 84 1025.3 2.2 N 2.2 0.0 0.0
03:07 -1.6 -3.9 84 1025.5 2.2 N 2.2 0.0 0.0
03:09 -1.6 -3.9 84 1025.3 2.2 N 2.2 0.0 0.0
03:10 -1.6 -3.9 84 1025.4 3.1 N 3.1 0.0 0.0
03:11 -1.7 -4.0 84 1025.2 3.8 N 3.8 0.0 0.0
03:12 -1.7 -4.0 84 1025.5 3.8 N 3.8 0.0 0.0
03:13 -1.7 -4.0 84 1025.3 3.8 NE 4.5 0.0 0.0
03:14 -1.7 -4.0 84 1025.5 3.1 N 4.5 0.0 0.0
03:15 -1.7 -4.0 84 1025.5 2.2 N 4.5 0.0 0.0
03:16 -1.7 -4.0 84 1025.6 3.8 N 4.5 0.0 0.0
03:17 -1.7 -4.0 84 1025.4 2.2 N 4.5 0.0 0.0
03:18 -1.7 -4.0 84 1025.4 2.2 N 4.5 0.0 0.0
03:19 -1.8 -4.1 84 1025.5 3.1 N 4.5 0.0 0.0
03:20 -1.8 -4.1 84 1025.5 3.1 N 4.5 0.0 0.0
03:22 -1.8 -4.1 84 1025.6 3.1 N 4.5 0.0 0.0
03:23 -1.8 -4.1 84 1025.5 4.5 N 4.5 0.0 0.0
03:24 -1.8 -4.0 85 1025.6 3.1 N 4.5 0.0 0.0
03:25 -1.8 -4.0 85 1025.6 2.2 N 4.5 0.0 0.0
03:26 -1.8 -4.0 85 1025.5 1.6 N 4.5 0.0 0.0
03:27 -1.8 -4.0 85 1025.6 1.6 N 4.5 0.0 0.0
03:28 -1.9 -4.1 85 1025.5 0.7 N 4.5 0.0 0.0
03:29 -1.9 -4.1 85 1025.6 0.7 N 4.5 0.0 0.0
03:30 -1.9 -4.1 85 1025.6 1.6 N 4.5 0.0 0.0
03:31 -1.9 -4.1 85 1025.7 0.7 N 4.5 0.0 0.0
03:32 -1.9 -4.1 85 1025.7 0.7 N 4.5 0.0 0.0
03:33 -1.9 -4.1 85 1025.7 0.7 N 4.5 0.0 0.0
03:34 -1.9 -4.1 85 1025.7 0.7 N 2.2 0.0 0.0
03:35 -2.0 -4.2 85 1025.7 1.6 N 1.6 0.0 0.0
03:36 -2.0 -4.2 85 1025.7 1.6 N 1.6 0.0 0.0
03:37 -2.0 -4.2 85 1025.7 0.7 N 1.6 0.0 0.0
03:38 -2.0 -4.2 85 1025.7 3.1 N 3.1 0.0 0.0
03:39 -2.0 -4.2 85 1025.7 0.7 N 3.1 0.0 0.0
03:40 -2.0 -4.2 85 1025.8 1.6 N 3.1 0.0 0.0
03:41 -2.0 -4.2 85 1025.8 0.7 N 3.1 0.0 0.0
03:42 -2.0 -4.2 85 1025.8 1.6 N 3.1 0.0 0.0
03:44 -2.0 -4.2 85 1026.0 0.7 N 3.1 0.0 0.0
03:45 -2.0 -4.2 85 1025.9 0.7 N 3.1 0.0 0.0
03:46 -2.1 -4.3 85 1026.1 3.1 N 3.1 0.0 0.0
03:47 -2.1 -4.3 85 1026.0 2.2 N 3.1 0.0 0.0
03:48 -2.1 -4.3 85 1025.9 3.8 N 3.8 0.0 0.0
03:49 -2.1 -4.3 85 1025.8 3.8 N 3.8 0.0 0.0
03:50 -2.1 -4.3 85 1025.8 4.5 N 4.5 0.0 0.0
03:51 -2.1 -4.3 85 1025.8 4.5 N 4.5 0.0 0.0
03:52 -2.1 -4.3 85 1025.9 4.5 NE 4.5 0.0 0.0
03:53 -2.1 -4.3 85 1025.8 3.8 NE 4.5 0.0 0.0
03:54 -2.1 -4.3 85 1025.9 4.5 N 4.5 0.0 0.0
03:55 -2.1 -4.3 85 1026.0 4.5 N 4.5 0.0 0.0
03:56 -2.1 -4.1 86 1026.0 3.8 N 4.5 0.0 0.0
03:57 -2.1 -4.1 86 1025.7 3.8 N 4.5 0.0 0.0
03:58 -2.1 -4.1 86 1025.9 3.8 N 4.5 0.0 0.0
03:59 -2.1 -4.1 86 1025.8 2.2 N 4.5 0.0 0.0
04:00 -2.0 -4.0 86 1025.9 3.1 N 4.5 0.0 0.0
04:01 -2.0 -4.0 86 1025.7 2.2 N 4.5 0.0 0.0
04:02 -2.0 -4.0 86 1025.8 1.6 N 4.5 0.0 0.0
04:03 -2.0 -4.0 86 1025.8 0.7 N 4.5 0.0 0.0
04:04 -2.0 -4.0 86 1025.9 1.6 N 4.5 0.0 0.0
04:06 -2.0 -4.0 86 1026.0 1.6 N 3.8 0.0 0.0
04:07 -2.0 -4.0 86 1026.0 1.6 N 3.8 0.0 0.0
04:08 -2.0 -4.0 86 1026.0 1.6 N 3.8 0.0 0.0
04:09 -2.0 -4.0 86 1025.9 1.6 N 3.1 0.0 0.0
04:10 -2.0 -4.0 86 1025.9 1.6 N 2.2 0.0 0.0
04:12 -2.1 -4.1 86 1025.9 0.7 N 1.6 0.0 0.0
04:13 -2.0 -4.0 86 1025.9 0.7 N 1.6 0.0 0.0
04:14 -2.1 -4.1 86 1026.0 1.6 N 1.6 0.0 0.0
04:15 -2.1 -4.1 86 1026.2 1.6 N 1.6 0.0 0.0
04:16 -2.1 -4.1 86 1026.1 2.2 N 2.2 0.0 0.0
04:17 -2.1 -4.1 86 1026.0 2.2 N 2.2 0.0 0.0
04:18 -2.1 -4.1 86 1026.0 3.1 N 3.1 0.0 0.0
04:19 -2.1 -4.1 86 1026.1 3.1 N 3.8 0.0 0.0
04:20 -2.2 -4.2 86 1026.0 3.1 N 3.8 0.0 0.0
04:21 -2.2 -4.2 86 1026.2 2.2 N 3.8 0.0 0.0
04:22 -2.2 -4.2 86 1026.0 2.2 N 3.8 0.0 0.0
04:23 -2.2 -4.2 86 1026.2 2.2 N 3.8 0.0 0.0
04:24 -2.2 -4.2 86 1026.2 3.1 N 3.8 0.0 0.0
04:25 -2.2 -4.2 86 1026.3 1.6 N 3.8 0.0 0.0
04:26 -2.2 -4.2 86 1026.2 0.7 N 3.8 0.0 0.0
04:27 -2.2 -4.2 86 1026.3 0.7 N 3.8 0.0 0.0
04:28 -2.2 -4.2 86 1026.3 0.7 N 3.8 0.0 0.0
04:29 -2.2 -4.2 86 1026.3 0.7 N 3.1 0.0 0.0
04:30 -2.2 -4.1 87 1026.5 0.0 N 3.1 0.0 0.0
04:31 -2.2 -4.2 86 1026.4 0.7 N 3.1 0.0 0.0
04:33 -2.2 -4.2 86 1026.5 0.0 N 3.1 0.0 0.0
04:34 -2.2 -4.1 87 1026.7 0.0 N 1.6 0.0 0.0
04:35 -2.2 -4.2 86 1026.8 0.7 N 1.6 0.0 0.0
04:36 -2.3 -4.2 87 1026.7 1.6 N 1.6 0.0 0.0
04:37 -2.2 -4.1 87 1026.8 1.6 N 1.6 0.0 0.0
04:38 -2.2 -4.1 87 1026.7 1.6 N 1.6 0.0 0.0
04:39 -2.3 -4.2 87 1026.6 3.8 N 3.8 0.0 0.0
04:40 -2.3 -4.2 87 1026.6 3.8 N 3.8 0.0 0.0
04:41 -2.3 -4.2 87 1026.6 5.4 N 5.4 0.0 0.0
04:42 -2.3 -4.2 87 1026.5 3.8 N 5.4 0.0 0.0
04:43 -2.3 -4.2 87 1026.4 3.8 N 5.4 0.0 0.0
04:44 -2.3 -4.2 87 1026.6 3.1 NE 5.4 0.0 0.0
04:45 -2.3 -4.2 87 1026.5 2.2 NE 5.4 0.0 0.0
04:46 -2.3 -4.2 87 1026.6 2.2 NE 5.4 0.0 0.0
04:47 -2.3 -4.2 87 1026.6 2.2 NE 5.4 0.0 0.0
04:48 -2.3 -4.2 87 1026.6 1.6 NE 5.4 0.0 0.0
04:49 -2.3 -4.2 87 1026.6 1.6 NE 5.4 0.0 0.0
04:51 -2.3 -4.2 87 1026.5 2.2 N 4.5 0.0 0.0
04:52 -2.3 -4.2 87 1026.5 3.1 N 4.5 0.0 0.0
04:53 -2.3 -4.2 87 1026.6 2.2 N 4.5 0.0 0.0
04:54 -2.3 -4.2 87 1026.7 1.6 N 3.8 0.0 0.0
04:55 -2.2 -4.1 87 1026.7 0.7 N 3.8 0.0 0.0
04:56 -2.2 -4.1 87 1026.7 4.5 N 4.5 0.0 0.0
04:57 -2.2 -4.1 87 1026.8 3.1 N 4.5 0.0 0.0
04:58 -2.2 -4.1 87 1026.7 2.2 N 4.5 0.0 0.0
04:59 -2.2 -4.1 87 1026.8 3.1 N 4.5 0.0 0.0
05:00 -2.2 -4.1 87 1026.7 3.8 N 4.5 0.0 0.0
05:01 -2.2 -4.1 87 1026.8 3.8 N 4.5 0.0 0.0
05:02 -2.2 -4.1 87 1026.7 3.8 N 4.5 0.0 0.0
05:03 -2.2 -4.1 87 1026.8 3.8 N 4.5 0.0 0.0
05:04 -2.2 -4.1 87 1026.7 3.8 N 4.5 0.0 0.0
05:05 -2.1 -4.0 87 1026.7 6.9 NE 6.9 0.0 0.0
05:06 -2.1 -4.0 87 1026.7 4.5 N 6.9 0.0 0.0
05:07 -2.1 -4.0 87 1026.8 4.5 NE 6.9 0.0 0.0
05:08 -2.1 -4.0 87 1026.9 4.5 NE 6.9 0.0 0.0
05:09 -2.0 -3.7 88 1026.8 5.4 N 6.9 0.0 0.0
05:10 -2.0 -3.9 87 1026.9 3.8 N 6.9 0.0 0.0
05:12 -2.0 -3.7 88 1026.9 3.1 N 6.9 0.0 0.0
05:13 -2.0 -3.7 88 1026.9 3.1 N 6.9 0.0 0.0
05:14 -2.0 -3.7 88 1027.0 2.2 N 6.9 0.0 0.0
05:15 -2.0 -3.7 88 1026.8 4.5 N 6.9 0.0 0.0
05:16 -2.0 -3.9 87 1027.0 3.8 N 5.4 0.0 0.0
05:17 -2.0 -3.9 87 1027.1 2.2 N 5.4 0.0 0.0
05:18 -1.9 -3.6 88 1027.0 3.1 N 5.4 0.0 0.0
05:19 -1.9 -3.8 87 1027.1 2.2 N 5.4 0.0 0.0
05:20 -1.9 -3.6 88 1027.2 3.1 N 4.5 0.0 0.0
05:21 -1.9 -3.6 88 1027.3 3.1 N 4.5 0.0 0.0
05:22 -1.9 -3.6 88 1027.2 3.8 N 4.5 0.0 0.0
05:23 -1.9 -3.6 88 1027.2 3.1 N 4.5 0.0 0.0
05:24 -1.9 -3.6 88 1027.2 3.8 N 4.5 0.0 0.0
05:25 -1.9 -3.6 88 1027.3 2.2 N 4.5 0.0 0.0
05:26 -1.9 -3.6 88 1027.2 4.5 N 4.5 0.0 0.0
05:27 -1.9 -3.6 88 1027.2 3.8 N 4.5 0.0 0.0
05:28 -1.8 -3.5 88 1027.1 3.8 N 4.5 0.0 0.0
05:29 -1.8 -3.5 88 1027.0 3.8 N 4.5 0.0 0.0
05:30 -1.8 -3.5 88 1026.9 4.5 N 4.5 0.0 0.0
05:31 -1.8 -3.5 88 1026.9 5.4 N 5.4 0.0 0.0
05:33 -1.8 -3.5 88 1027.1 5.4 NE 6.0 0.0 0.0
05:34 -1.8 -3.5 88 1027.0 4.5 N 6.0 0.0 0.0
05:35 -1.8 -3.5 88 1027.1 2.2 N 6.0 0.0 0.0
05:36 -1.8 -3.5 88 1027.1 2.2 N 6.0 0.0 0.0
05:37 -1.8 -3.5 88 1027.2 2.2 N 6.0 0.0 0.0
05:38 -1.8 -3.5 88 1027.2 2.2 N 6.0 0.0 0.0
05:39 -1.8 -3.5 88 1027.3 2.2 N 6.0 0.0 0.0
05:40 -1.8 -3.5 88 1027.4 2.2 N 6.0 0.0 0.0
05:41 -1.8 -3.5 88 1027.3 2.2 N 6.0 0.0 0.0
05:42 -1.8 -3.5 88 1027.3 3.8 N 6.0 0.0 0.0
05:43 -1.8 -3.5 88 1027.4 2.2 N 5.4 0.0 0.0
05:44 -1.8 -3.5 88 1027.4 1.6 N 4.5 0.0 0.0
05:45 -1.8 -3.5 88 1027.4 1.6 N 3.8 0.0 0.0
05:46 -1.8 -3.5 88 1027.3 1.6 N 3.8 0.0 0.0
05:47 -1.8 -3.5 88 1027.4 2.2 N 3.8 0.0 0.0
05:48 -1.8 -3.5 88 1027.4 1.6 N 3.8 0.0 0.0
05:49 -1.8 -3.5 88 1027.3 2.2 N 3.8 0.0 0.0
05:50 -1.8 -3.5 88 1027.3 2.2 N 3.8 0.0 0.0
05:51 -1.8 -3.5 88 1027.3 1.6 N 3.8 0.0 0.0
05:52 -1.8 -3.5 88 1027.4 4.5 N 4.5 0.0 0.0
05:53 -1.8 -3.5 88 1027.4 4.5 NE 4.5 0.0 0.0
05:54 -1.8 -3.5 88 1027.4 5.4 NE 5.4 0.0 0.0
05:55 -1.7 -3.4 88 1027.4 5.4 NE 5.4 0.0 0.0
05:56 -1.7 -3.4 88 1027.4 6.0 NE 6.0 0.0 0.0
05:57 -1.7 -3.4 88 1027.4 5.4 NE 6.0 0.0 0.0
05:58 -1.7 -3.4 88 1027.4 7.6 NE 7.6 0.0 0.0
05:59 -1.7 -3.4 88 1027.3 4.5 NE 7.6 0.0 0.0
06:00 -1.7 -3.4 88 1027.5 4.5 NE 7.6 0.0 0.0
06:01 -1.7 -3.4 88 1027.5 4.5 NE 7.6 0.0 0.0
06:02 -1.7 -3.4 88 1027.5 4.5 NE 7.6 0.0 0.0
06:03 -1.7 -3.4 88 1027.6 4.5 NE 7.6 0.0 0.0
06:04 -1.7 -3.4 88 1027.7 4.5 NE 7.6 0.0 0.0
06:05 -1.7 -3.4 88 1027.7 4.5 NE 7.6 0.0 0.0
06:06 -1.7 -3.4 88 1027.7 3.8 NE 7.6 0.0 0.0
06:07 -1.7 -3.4 88 1027.7 3.8 N 7.6 0.0 0.0
06:08 -1.6 -3.3 88 1027.8 2.2 N 7.6 0.0 0.0
06:10 -1.7 -3.4 88 1027.8 2.2 N 4.5 0.0 0.0
06:11 -1.6 -3.3 88 1027.8 2.2 N 4.5 0.0 0.0
06:13 -1.7 -3.4 88 1027.9 1.6 N 4.5 0.0 0.0
06:14 -1.7 -3.4 88 1028.0 2.2 N 4.5 0.0 0.0
06:15 -1.7 -3.4 88 1028.0 3.1 N 4.5 0.0 0.0
06:16 -1.7 -3.4 88 1027.9 4.5 NE 4.5 0.0 0.0
06:17 -1.7 -3.4 88 1028.1 3.8 NE 4.5 0.0 0.0
06:18 -1.7 -3.4 88 1027.8 4.5 NE 4.5 0.0 0.0
06:19 -1.7 -3.4 88 1027.9 3.8 NE 4.5 0.0 0.0
06:20 -1.7 -3.4 88 1027.9 3.8 NE 4.5 0.0 0.0
06:21 -1.7 -3.4 88 1027.9 3.1 NE 4.5 0.0 0.0
06:22 -1.7 -3.4 88 1028.0 1.6 NE 4.5 0.0 0.0
06:23 -1.7 -3.4 88 1027.9 1.6 NE 4.5 0.0 0.0
06:24 -1.7 -3.4 88 1027.8 2.2 NE 4.5 0.0 0.0
06:25 -1.7 -3.4 88 1027.7 3.1 N 4.5 0.0 0.0
06:26 -1.7 -3.4 88 1027.8 2.2 N 4.5 0.0 0.0
06:27 -1.8 -3.5 88 1027.8 2.2 N 4.5 0.0 0.0
06:28 -1.8 -3.5 88 1027.8 3.1 N 4.5 0.0 0.0
06:29 -1.8 -3.5 88 1027.7 3.8 N 3.8 0.0 0.0
06:30 -1.8 -3.5 88 1027.7 3.8 N 3.8 0.0 0.0
06:31 -1.8 -3.5 88 1027.8 3.8 N 3.8 0.0 0.0
06:33 -1.8 -3.5 88 1027.6 2.2 N 3.8 0.0 0.0
06:34 -1.8 -3.5 88 1027.9 3.1 N 3.8 0.0 0.0
06:35 -1.8 -3.5 88 1027.9 2.2 N 3.8 0.0 0.0
06:36 -1.8 -3.5 88 1027.9 2.2 N 3.8 0.0 0.0
06:37 -1.8 -3.5 88 1027.9 1.6 N 3.8 0.0 0.0
06:38 -1.7 -3.4 88 1027.9 1.6 N 3.8 0.0 0.0
06:39 -1.8 -3.5 88 1028.1 2.2 N 3.8 0.0 0.0
06:40 -1.8 -3.5 88 1028.0 1.6 N 3.8 0.0 0.0
06:41 -1.8 -3.5 88 1027.9 3.1 N 3.8 0.0 0.0
06:42 -1.8 -3.5 88 1028.0 3.8 N 3.8 0.0 0.0
06:43 -1.8 -3.5 88 1028.1 3.8 N 3.8 0.0 0.0
06:44 -1.8 -3.5 88 1028.0 5.4 NE 5.4 0.0 0.0
06:45 -1.8 -3.5 88 1028.1 4.5 NE 5.4 0.0 0.0
06:46 -1.8 -3.5 88 1028.1 4.5 NE 5.4 0.0 0.0
06:47 -1.8 -3.5 88 1028.0 3.1 N 5.4 0.0 0.0
06:48 -1.8 -3.5 88 1028.0 2.2 N 5.4 0.0 0.0
06:49 -1.8 -3.5 88 1028.0 1.6 N 5.4 0.0 0.0
06:50 -1.8 -3.5 88 1028.2 2.2 N 5.4 0.0 0.0
06:51 -1.8 -3.5 88 1028.3 2.2 N 5.4 0.0 0.0
06:52 -1.7 -3.4 88 1028.2 1.6 N 5.4 0.0 0.0
06:53 -1.7 -3.4 88 1028.4 1.6 N 5.4 0.0 0.0
06:54 -1.7 -3.4 88 1028.3 0.7 N 4.5 0.0 0.0
06:55 -1.7 -3.4 88 1028.3 1.6 N 4.5 0.0 0.0
06:56 -1.7 -3.4 88 1028.3 1.6 N 3.1 0.0 0.0
06:57 -1.7 -3.4 88 1028.4 1.6 N 3.1 0.0 0.0
06:58 -1.7 -3.4 88 1028.4 3.1 N 3.1 0.0 0.0
06:59 -1.7 -3.4 88 1028.4 2.2 N 3.1 0.0 0.0
07:00 -1.7 -3.4 88 1028.4 2.2 N 3.1 0.0 0.0
07:01 -1.7 -3.4 88 1028.5 2.2 N 3.1 0.0 0.0
07:02 -1.7 -3.4 88 1028.4 2.2 N 3.1 0.0 0.0
07:03 -1.7 -3.4 88 1028.5 2.2 N 3.1 0.0 0.0
07:04 -1.7 -3.4 88 1028.5 2.2 N 3.1 0.0 0.0
07:05 -1.7 -3.4 88 1028.5 2.2 N 3.1 0.0 0.0
07:06 -1.7 -3.4 88 1028.5 3.8 N 3.8 0.0 0.0
07:07 -1.7 -3.4 88 1028.4 3.1 N 3.8 0.0 0.0
07:08 -1.7 -3.4 88 1028.4 3.1 N 3.8 0.0 0.0
07:09 -1.6 -3.3 88 1028.5 3.1 N 3.8 0.0 0.0
07:11 -1.6 -3.3 88 1028.6 2.2 N 3.8 0.0 0.0
07:12 -1.6 -3.3 88 1028.4 3.1 N 3.8 0.0 0.0
07:13 -1.6 -3.3 88 1028.5 3.1 N 3.8 0.0 0.0
07:14 -1.6 -3.3 88 1028.6 3.1 N 3.8 0.0 0.0
07:16 -1.6 -3.3 88 1028.5 2.2 N 3.8 0.0 0.0
07:17 -1.6 -3.3 88 1028.5 3.1 N 3.1 0.0 0.0
07:18 -1.6 -3.3 88 1028.6 1.6 N 3.1 0.0 0.0
07:19 -1.5 -3.2 88 1028.7 2.2 N 3.1 0.0 0.0
07:20 -1.5 -3.2 88 1028.6 3.1 N 3.1 0.0 0.0
07:21 -1.5 -3.2 88 1028.6 4.5 N 4.5 0.0 0.0
07:22 -1.5 -3.2 88 1028.5 3.8 N 4.5 0.0 0.0
07:23 -1.5 -3.2 88 1028.6 4.5 N 4.5 0.0 0.0
07:24 -1.5 -3.2 88 1028.6 5.4 N 5.4 0.0 0.0
07:25 -1.4 -3.1 88 1028.7 3.8 N 5.4 0.0 0.0
07:26 -1.4 -3.1 88 1028.8 4.5 NE 5.4 0.0 0.0
07:27 -1.4 -3.1 88 1028.9 5.4 NE 5.4 0.0 0.0
07:29 -1.3 -3.0 88 1028.7 3.8 NE 5.4 0.0 0.0
07:30 -1.3 -2.9 89 1028.7 5.4 NE 5.4 0.0 0.0
07:31 -1.2 -2.8 89 1028.9 5.4 N 5.4 0.0 0.0
07:32 -1.2 -2.8 89 1028.7 3.8 N 5.4 0.0 0.0
07:33 -1.1 -2.7 89 1028.7 3.8 N 5.4 0.0 0.0
07:34 -1.1 -2.7 89 1028.7 3.8 N 5.4 0.0 0.0
07:35 -1.0 -2.6 89 1028.8 4.5 N 5.4 0.0 0.0
07:36 -1.0 -2.6 89 1028.7 3.8 N 6.0 0.0 0.0
07:37 -0.9 -2.5 89 1028.6 6.9 NE 6.9 0.0 0.0
07:39 -0.8 -2.4 89 1028.5 5.4 NE 6.9 0.0 0.0
07:40 -0.8 -2.4 89 1028.6 5.4 N 6.9 0.0 0.0
07:41 -0.8 -2.4 89 1028.8 5.4 NE 6.9 0.0 0.0
07:42 -0.7 -2.3 89 1028.8 5.4 N 6.9 0.0 0.0
07:43 -0.7 -2.3 89 1028.7 6.9 N 6.9 0.0 0.0
07:44 -0.6 -2.2 89 1028.7 3.8 N 6.9 0.0 0.0
07:45 -0.6 -2.2 89 1028.8 5.4 N 6.9 0.0 0.0
07:46 -0.6 -2.2 89 1028.7 4.5 NNE 6.9 0.0 0.0
07:47 -0.5 -2.1 89 1028.8 4.5 N 6.9 0.0 0.0
07:48 -0.4 -2.0 89 1028.7 5.4 N 6.9 0.0 0.0
07:49 -0.4 -2.0 89 1028.8 5.4 NE 6.9 0.0 0.0
07:50 -0.4 -2.0 89 1028.7 4.5 N 6.9 0.0 0.0
07:51 -0.3 -1.9 89 1028.9 5.4 NE 6.9 0.0 0.0
07:52 -0.3 -1.9 89 1029.0 3.8 NE 6.9 0.0 0.0
07:53 -0.2 -1.8 89 1028.8 6.0 N 6.9 0.0 0.0
07:54 -0.2 -1.8 89 1029.0 3.8 NE 6.0 0.0 0.0
07:55 -0.1 -1.7 89 1029.0 4.5 NE 6.0 0.0 0.0
07:56 -0.1 -1.7 89 1029.0 5.4 NE 6.0 0.0 0.0
07:57 0.0 -1.6 89 1028.9 8.3 N 8.3 0.0 0.0
07:58 0.0 -1.6 89 1028.9 5.4 NE 8.3 0.0 0.0
07:59 0.0 -1.6 89 1028.9 4.5 NE 8.3 0.0 0.0
08:00 0.0 -1.6 89 1029.0 6.0 N 8.3 0.0 0.0
08:01 0.0 -1.6 89 1029.0 6.0 N 8.3 0.0 0.0
08:02 0.0 -1.6 89 1029.1 6.0 N 8.3 0.0 0.0
08:04 0.0 -1.6 89 1029.1 6.0 N 8.3 0.0 0.0
08:05 0.0 -1.6 89 1029.1 6.0 N 8.3 0.0 0.0
08:06 0.2 -1.4 89 1029.2 8.3 N 8.3 0.0 0.0
08:07 0.3 -1.3 89 1029.2 4.5 N 8.3 0.0 0.0
08:08 0.3 -1.3 89 1029.1 8.3 N 8.3 0.0 0.0
08:09 0.4 -1.2 89 1029.2 5.4 NE 8.3 0.0 0.0
08:10 0.4 -1.2 89 1029.0 4.5 N 8.3 0.0 0.0
08:12 0.5 -1.1 89 1029.0 6.0 NE 8.3 0.0 0.0
08:13 0.6 -1.0 89 1029.2 9.2 NE 9.2 0.0 0.0
08:15 0.6 -1.0 89 1029.2 7.6 NE 9.2 0.0 0.0
08:16 0.7 -0.9 89 1029.2 9.8 N 9.8 0.0 0.0
08:17 0.7 -0.9 89 1029.2 6.0 N 9.8 0.0 0.0
08:18 0.7 -0.9 89 1029.2 6.9 N 9.8 0.0 0.0
08:19 0.8 -0.8 89 1029.2 6.0 NE 9.8 0.0 0.0
08:20 0.9 -0.7 89 1029.2 6.9 NE 9.8 0.0 0.0
08:21 0.9 -0.7 89 1029.4 6.9 N 9.8 0.0 0.0
08:22 1.0 -0.6 89 1029.3 6.0 NE 9.8 0.0 0.0
08:23 1.0 -0.6 89 1029.1 5.4 N 9.8 0.0 0.0
08:24 1.1 -0.5 89 1029.3 6.9 N 9.8 0.0 0.0
08:25 1.1 -0.5 89 1029.2 7.6 NE 9.8 0.0 0.0
08:27 1.2 -0.4 89 1029.3 7.6 NE 12.1 0.0 0.0
08:28 1.2 -0.6 88 1029.2 9.2 N 12.1 0.0 0.0
08:29 1.3 -0.5 88 1029.3 7.6 N 12.1 0.0 0.0
08:30 1.3 -0.5 88 1029.2 6.9 N 12.1 0.0 0.0
08:31 1.3 -0.3 89 1029.3 8.3 NE 12.1 0.0 0.0
08:32 1.4 -0.4 88 1029.2 9.2 NE 12.1 0.0 0.0
08:33 1.4 -0.4 88 1029.2 6.0 N 12.1 0.0 0.0
08:34 1.4 -0.4 88 1029.3 8.3 NE 12.1 0.0 0.0
08:35 1.5 -0.3 88 1029.4 5.4 N 12.1 0.0 0.0
08:36 1.6 -0.2 88 1029.4 6.9 N 9.2 0.0 0.0
08:37 1.6 -0.2 88 1029.5 7.6 NE 9.2 0.0 0.0
08:38 1.6 -0.2 88 1029.5 5.4 N 9.2 0.0 0.0
08:39 1.7 -0.1 88 1029.6 6.9 NE 9.2 0.0 0.0
08:40 1.7 -0.1 88 1029.7 5.4 NE 9.2 0.0 0.0
08:41 1.7 -0.1 88 1029.6 5.4 N 9.2 0.0 0.0
08:42 1.8 0.0 88 1029.6 7.6 N 8.3 0.0 0.0
08:43 1.8 0.0 88 1029.7 7.6 NE 8.3 0.0 0.0
08:44 1.9 0.1 88 1029.6 8.3 NW 8.3 0.0 0.0
08:45 1.9 0.1 88 1029.6 9.2 NE 9.2 0.0 0.0
08:46 1.9 0.1 88 1029.8 6.0 NE 9.2 0.0 0.0
08:47 2.0 0.2 88 1029.7 7.6 N 9.2 0.0 0.0
08:48 2.0 0.2 88 1029.7 7.6 N 9.2 0.0 0.0
08:49 2.0 0.2 88 1029.7 5.4 N 9.2 0.0 0.0
08:50 2.1 0.3 88 1029.7 5.4 NE 9.2 0.0 0.0
08:52 2.1 0.3 88 1029.6 9.2 NE 9.2 0.0 0.0
08:53 2.1 0.3 88 1029.6 6.0 NW 9.2 0.0 0.0
08:54 2.2 0.4 88 1029.6 6.9 NE 9.2 0.0 0.0
08:55 2.2 0.4 88 1029.5 4.5 N 9.2 0.0 0.0
08:56 2.2 0.4 88 1029.6 6.0 NE 9.2 0.0 0.0
08:57 2.2 0.4 88 1029.7 9.8 N 9.8 0.0 0.0
08:58 2.3 0.5 88 1029.7 12.1 N 12.1 0.0 0.0
08:59 2.3 0.5 88 1029.8 7.6 N 12.1 0.0 0.0
09:00 2.4 0.6 88 1029.9 11.4 NE 12.1 0.0 0.0
09:01 2.4 0.6 88 1029.7 11.4 NE 12.1 0.0 0.0
09:02 2.4 0.6 88 1029.6 11.4 NE 12.1 0.0 0.0
09:03 2.4 0.6 88 1029.6 11.4 NE 12.1 0.0 0.0
09:04 2.4 0.6 88 1029.6 11.4 NE 12.1 0.0 0.0
09:05 2.5 0.7 88 1029.5 10.7 NE 12.1 0.0 0.0
09:06 2.6 0.8 88 1029.7 9.8 N 12.1 0.0 0.0
09:07 2.6 0.7 87 1029.8 8.3 NE 12.1 0.0 0.0
09:08 2.6 0.7 87 1029.7 9.8 N 12.1 0.0 0.0
09:09 2.6 0.8 88 1029.7 6.9 NE 12.1 0.0 0.0
09:10 2.7 0.9 88 1029.7 6.9 NE 12.1 0.0 0.0
09:11 2.7 0.8 87 1029.8 5.4 NE 12.1 0.0 0.0
09:12 2.7 0.8 87 1029.9 5.4 N 12.1 0.0 0.0
09:13 2.7 0.8 87 1029.9 6.0 NE 12.1 0.0 0.0
09:14 2.8 0.9 87 1029.8 6.0 N 12.1 0.0 0.0
09:15 2.8 0.9 87 1029.8 10.7 NE 12.1 0.0 0.0
09:16 2.9 1.0 87 1029.7 5.4 N 12.1 0.0 0.0
09:17 2.9 1.0 87 1029.7 4.5 N 10.7 0.0 0.0
09:18 2.9 1.0 87 1029.7 8.3 NE 10.7 0.0 0.0
09:20 2.9 1.0 87 1029.7 9.8 N 10.7 0.0 0.0
09:21 3.0 1.1 87 1029.7 7.6 N 10.7 0.0 0.0
09:22 3.0 1.1 87 1029.9 9.8 NE 10.7 0.0 0.0
09:23 3.0 1.1 87 1029.7 6.9 N 10.7 0.0 0.0
09:24 3.1 1.2 87 1029.7 5.4 N 10.7 0.0 0.0
09:25 3.1 1.2 87 1029.8 6.0 N 10.7 0.0 0.0
09:26 3.1 1.2 87 1029.7 6.9 N 10.7 0.0 0.0
09:27 3.1 1.2 87 1029.8 4.5 N 9.8 0.0 0.0
09:28 3.2 1.2 87 1029.8 8.3 N 9.8 0.0 0.0
09:29 3.2 1.2 87 1029.7 4.5 N 9.8 0.0 0.0
09:30 3.2 1.2 87 1029.7 9.2 NE 9.8 0.0 0.0
09:31 3.2 1.2 87 1029.8 6.9 NE 9.8 0.0 0.0
09:32 3.3 1.3 87 1029.8 6.9 NE 9.8 0.0 0.0
09:33 3.3 1.3 87 1029.8 9.8 NE 9.8 0.0 0.0
09:34 3.3 1.3 87 1029.8 7.6 NE 9.8 0.0 0.0
09:35 3.4 1.3 86 1030.0 10.7 NE 10.7 0.0 0.0
09:36 3.4 1.3 86 1030.0 3.8 N 10.7 0.0 0.0
09:37 3.4 1.3 86 1030.1 6.9 NW 10.7 0.0 0.0
09:38 3.5 1.4 86 1030.2 6.0 N 10.7 0.0 0.0
09:39 3.5 1.4 86 1030.1 5.4 NE 10.7 0.0 0.0
09:40 3.5 1.4 86 1030.1 6.9 NW 10.7 0.0 0.0
09:41 3.5 1.4 86 1030.1 9.2 NE 10.7 0.0 0.0
09:42 3.6 1.5 86 1030.0 7.6 NE 10.7 0.0 0.0
09:43 3.6 1.5 86 1030.1 7.6 N 10.7 0.0 0.0
09:44 3.6 1.5 86 1030.2 6.9 NE 10.7 0.0 0.0
09:45 3.7 1.6 86 1030.1 9.2 N 10.7 0.0 0.0
09:46 3.7 1.4 85 1030.2 9.2 N 9.2 0.0 0.0
09:47 3.8 1.5 85 1030.2 13.6 NE 13.6 0.0 0.0
09:48 3.8 1.5 85 1030.2 13.6 NW 13.6 0.0 0.0
09:50 3.9 1.4 84 1030.4 7.6 N 13.6 0.0 0.0
09:51 3.9 1.4 84 1030.3 9.2 NE 13.6 0.0 0.0
09:52 4.0 1.5 84 1030.3 9.8 NE 13.6 0.0 0.0
09:53 4.0 1.5 84 1030.3 8.3 NNW 13.6 0.0 0.0
09:54 4.1 1.6 84 1030.3 8.3 N 13.6 0.0 0.1
09:55 4.1 1.6 84 1030.3 11.4 N 13.6 0.8 0.1
09:56 4.2 1.6 83 1030.2 13.0 N 13.6 0.8 0.1
09:57 4.2 1.6 83 1030.3 10.7 NE 13.6 0.8 0.1
09:58 4.3 1.7 83 1030.2 10.7 NNE 13.6 0.8 0.1
09:59 4.3 1.7 83 1030.2 11.4 N 13.0 0.8 0.1
10:00 4.4 1.8 83 1030.4 15.2 N 15.2 0.0 0.1
10:01 4.4 1.8 83 1030.2 15.2 N 15.2 0.0 0.1
10:02 4.5 1.7 82 1030.3 8.3 NE 15.2 0.0 0.1
10:03 4.5 1.7 82 1030.2 6.0 N 15.2 0.0 0.1
10:04 4.6 1.8 82 1030.3 7.6 NE 15.2 0.0 0.1
10:05 4.7 1.9 82 1030.3 7.6 NE 15.2 0.0 0.1
10:06 4.8 2.0 82 1030.3 8.3 N 15.2 0.0 0.1
10:07 4.8 2.0 82 1030.3 8.3 NW 15.2 0.0 0.1
10:08 4.9 2.1 82 1030.3 5.4 N 15.2 0.0 0.1
10:10 5.0 2.2 82 1030.4 4.5 NW 15.2 0.0 0.1
10:11 5.0 2.2 82 1030.4 7.6 N 9.2 0.0 0.1
10:13 5.1 2.1 81 1030.3 9.2 NW 9.2 0.0 0.1
10:15 5.2 2.2 81 1030.2 11.4 NE 11.4 0.0 0.1
10:16 5.2 2.2 81 1030.3 11.4 NE 11.4 0.0 0.1
10:17 5.2 2.2 81 1030.2 8.3 NE 11.4 0.0 0.1
10:18 5.3 2.3 81 1030.4 10.7 N 11.4 0.0 0.1
10:19 5.3 2.1 80 1030.4 7.6 NW 11.4 0.0 0.1
10:20 5.3 2.1 80 1030.4 7.6 NW 11.4 0.0 0.1
10:21 5.4 2.4 81 1030.4 3.8 NW 11.4 0.0 0.1
10:22 5.4 2.4 81 1030.5 9.2 N 11.4 0.0 0.1
10:23 5.5 2.5 81 1030.5 6.9 N 11.4 0.0 0.1
10:24 5.6 2.6 81 1030.4 5.4 NW 11.4 0.0 0.1
10:25 5.6 2.4 80 1030.5 7.6 N 11.4 0.0 0.1
10:26 5.7 2.5 80 1030.6 7.6 N 10.7 0.0 0.1
10:27 5.7 2.5 80 1030.5 6.0 N 10.7 0.0 0.1
10:28 5.8 2.6 80 1030.5 6.0 NE 9.2 0.0 0.1
10:29 5.8 2.6 80 1030.5 6.0 NW 9.2 0.0 0.1
10:30 5.9 2.7 80 1030.6 6.0 NW 9.2 0.0 0.1
10:31 5.9 2.7 80 1030.5 7.6 N 9.2 0.0 0.1
10:32 6.0 2.6 79 1030.4 9.2 N 9.2 0.8 0.1
10:33 6.0 2.6 79 1030.3 3.8 N 9.2 0.8 0.1
10:34 6.1 2.7 79 1030.3 9.8 N 9.8 0.8 0.1
10:35 6.1 2.7 79 1030.4 5.4 N 9.8 0.8 0.1
10:36 6.1 2.7 79 1030.4 4.5 N 9.8 0.8 0.1
10:37 6.1 2.7 79 1030.4 6.9 N 9.8 0.0 0.1
10:38 6.1 2.6 78 1030.6 8.3 N 9.8 0.0 0.1
10:39 6.0 2.5 78 1030.4 6.9 N 9.8 0.0 0.1
10:40 6.1 2.7 79 1030.5 10.7 NE 10.7 0.0 0.1
10:42 6.2 2.7 78 1030.4 9.8 N 10.7 0.0 0.1
10:43 6.2 2.7 78 1030.6 6.9 N 10.7 0.0 0.1
10:44 6.3 2.7 78 1030.5 9.2 N 10.7 0.0 0.1
10:45 6.3 2.7 78 1030.6 7.6 N 10.7 0.8 0.2
10:46 6.3 2.7 78 1030.5 6.0 N 10.7 0.8 0.2
10:47 6.4 2.8 78 1030.5 6.0 N 10.7 0.8 0.2
10:48 6.4 2.8 78 1030.6 9.2 NE 10.7 0.8 0.2
10:49 6.4 2.8 78 1030.4 6.9 NE 10.7 0.8 0.2
10:50 6.5 2.9 78 1030.5 7.6 NE 10.7 0.0 0.2
10:51 6.5 2.9 78 1030.4 9.2 N 9.8 0.0 0.2
10:52 6.6 3.0 78 1030.5 6.0 NW 9.2 0.0 0.2
10:53 6.6 3.2 79 1030.5 5.4 NW 9.2 0.0 0.2
10:54 6.6 3.2 79 1030.6 6.0 N 9.2 0.0 0.2
10:55 6.6 3.2 79 1030.6 6.9 N 9.2 0.0 0.2
10:56 6.6 3.2 79 1030.6 5.4 N 9.2 0.0 0.2
10:57 6.6 3.2 79 1030.7 4.5 N 9.2 0.0 0.2
10:58 6.6 3.4 80 1030.7 6.0 N 9.2 0.0 0.2
10:59 6.6 3.4 80 1030.7 3.8 N 9.2 0.0 0.2
11:00 6.7 3.5 80 1030.7 3.1 N 9.2 0.0 0.2
11:01 6.7 3.5 80 1030.8 3.1 N 8.3 0.0 0.2
11:02 6.7 3.5 80 1030.8 3.1 N 8.3 0.0 0.2
11:03 6.7 3.5 80 1030.7 3.1 N 8.3 0.0 0.2
11:04 6.7 3.5 80 1030.7 3.1 N 8.3 0.0 0.2
11:05 6.9 3.7 80 1030.8 4.5 NW 6.0 0.0 0.3
11:06 6.9 3.7 80 1030.8 7.6 N 7.6 1.5 0.3
11:08 7.0 3.8 80 1030.8 7.6 NE 7.6 1.5 0.3
11:09 7.0 3.8 80 1030.8 6.9 NE 7.6 1.5 0.3
11:10 7.0 3.8 80 1030.8 10.7 N 10.7 1.5 0.3
11:11 7.1 3.9 80 1030.9 5.4 NE 10.7 0.0 0.3
11:12 7.1 3.9 80 1030.7 9.8 NW 10.7 0.0 0.3
11:13 7.1 3.9 80 1030.8 6.9 N 10.7 0.0 0.3
11:14 7.2 4.0 80 1030.8 5.4 N 10.7 0.0 0.3
11:15 7.2 4.0 80 1030.7 6.9 NE 10.7 0.0 0.3
11:16 7.2 4.0 80 1030.7 8.3 NE 10.7 0.0 0.3
11:17 7.2 3.8 79 1030.8 4.5 NE 10.7 0.0 0.3
11:18 7.3 3.9 79 1030.8 4.5 N 10.7 0.0 0.3
11:19 7.3 3.9 79 1030.7 7.6 N 10.7 0.0 0.3
11:20 7.4 4.0 79 1030.8 4.5 N 9.8 0.0 0.3
11:21 7.4 4.0 79 1030.7 6.9 NE 9.8 0.0 0.3
11:22 7.5 4.1 79 1030.8 3.8 NE 9.2 0.0 0.4
11:23 7.5 4.1 79 1030.8 4.5 NE 9.2 0.8 0.4
11:24 7.6 4.2 79 1030.8 9.2 N 9.2 0.8 0.4
11:25 7.6 4.2 79 1030.7 9.8 N 9.8 0.8 0.4
11:26 7.6 4.2 79 1030.8 9.8 NW 9.8 0.8 0.4
11:27 7.6 4.2 79 1030.8 7.6 N 9.8 0.8 0.4
11:28 7.7 4.3 79 1030.8 5.4 N 9.8 0.0 0.4
11:29 7.7 4.3 79 1030.8 5.4 N 9.8 0.0 0.4
11:30 7.8 4.4 79 1030.8 7.6 NW 9.8 0.0 0.4
11:31 7.8 4.4 79 1030.8 6.0 N 9.8 0.0 0.4
11:32 7.8 4.4 79 1030.7 8.3 NE 9.8 0.0 0.4
11:33 7.8 4.4 79 1030.8 6.0 N 9.8 0.0 0.4
11:35 7.9 4.5 79 1030.8 7.6 NE 9.8 0.0 0.4
11:36 8.0 4.6 79 1030.8 6.0 WNW 9.8 0.0 0.4
11:37 8.0 4.6 79 1030.8 6.0 NW 8.3 0.0 0.4
11:38 8.0 4.4 78 1030.8 10.7 N 10.7 0.0 0.4
11:39 8.1 4.5 78 1030.9 7.6 N 10.7 0.8 0.4
11:40 8.1 4.5 78 1030.7 8.3 N 10.7 0.8 0.4
11:41 8.2 4.6 78 1030.9 6.0 N 10.7 0.8 0.4
11:42 8.2 4.6 78 1030.8 9.2 N 10.7 0.8 0.4
11:43 8.2 4.6 78 1030.9 8.3 N 10.7 0.8 0.4
11:44 8.2 4.6 78 1030.9 7.6 N 10.7 0.0 0.4
11:45 8.3 4.5 77 1031.0 5.4 N 10.7 0.0 0.4
11:46 8.3 4.5 77 1031.0 9.8 N 10.7 0.0 0.4
11:47 8.3 4.5 77 1030.8 7.6 NW 10.7 0.0 0.4
11:48 8.4 4.6 77 1031.1 5.4 N 9.8 0.0 0.4
11:49 8.4 4.6 77 1031.0 5.4 NW 9.8 0.0 0.4
11:50 8.4 4.6 77 1031.0 6.0 NW 9.8 0.0 0.4
11:51 8.4 4.8 78 1031.0 9.2 NW 9.8 0.0 0.4
11:52 8.5 4.9 78 1031.0 8.3 N 9.8 0.0 0.4
11:53 8.5 4.7 77 1031.1 6.0 N 9.8 0.0 0.4
11:54 8.5 4.7 77 1031.2 5.4 NW 9.8 0.0 0.5
11:55 8.5 4.7 77 1031.1 5.4 NW 9.8 0.8 0.5
11:56 8.6 5.0 78 1031.1 6.9 N 9.2 0.8 0.5
11:57 8.6 5.0 78 1031.1 6.0 N 9.2 0.8 0.5
11:58 8.6 5.0 78 1031.2 3.8 NW 9.2 0.8 0.5
11:59 8.6 4.8 77 1031.1 5.4 NW 9.2 0.8 0.5
12:00 8.6 4.8 77 1031.1 5.4 NW 9.2 0.0 0.5
12:02 8.6 4.8 77 1031.2 5.4 NW 8.3 0.0 0.5
12:03 8.6 4.8 77 1031.1 5.4 NW 7.6 0.0 0.5
12:04 8.6 4.8 77 1031.1 5.4 NW 7.6 0.0 0.5
12:05 8.6 4.8 77 1031.2 5.4 NW 7.6 0.0 0.5
12:06 8.6 4.8 77 1031.2 6.0 NW 9.2 0.0 0.5
12:07 8.6 4.8 77 1031.2 3.1 N 9.2 0.0 0.5
12:08 8.6 4.8 77 1031.4 7.6 N 9.2 0.0 0.5
12:09 8.6 4.8 77 1031.2 8.3 NW 9.2 0.0 0.5
12:11 8.6 4.8 77 1031.3 9.2 NW 9.2 0.0 0.5
12:12 8.6 4.8 77 1031.4 8.3 N 9.2 0.0 0.5
12:14 8.5 4.7 77 1031.2 5.4 NW 9.2 0.0 0.5
12:15 8.4 4.6 77 1031.3 6.9 NW 9.8 0.0 0.5
12:16 8.4 4.6 77 1031.5 4.5 NW 9.8 0.0 0.5
12:17 8.4 4.6 77 1031.4 6.9 N 9.8 0.0 0.5
12:18 8.4 4.6 77 1031.6 6.0 N 9.8 0.0 0.5
12:20 8.5 4.7 77 1031.5 9.2 NW 9.8 0.0 0.5
12:21 8.5 4.7 77 1031.4 13.0 NW 13.0 0.0 0.5
12:22 8.5 4.7 77 1031.3 8.3 NW 13.0 0.0 0.5
12:23 8.5 4.7 77 1031.5 10.7 NW 13.0 0.0 0.5
12:24 8.4 4.6 77 1031.4 9.2 NW 13.0 0.0 0.5
12:25 8.4 4.6 77 1031.6 9.2 NW 13.0 0.0 0.5
12:26 8.3 4.5 77 1031.4 9.8 N 13.0 0.0 0.5
12:27 8.3 4.5 77 1031.4 9.2 NW 13.0 0.0 0.5
12:28 8.3 4.5 77 1031.4 12.1 NW 13.0 0.0 0.5
12:29 8.3 4.5 77 1031.4 9.8 NW 13.0 0.0 0.5
12:30 8.3 4.5 77 1031.3 12.1 W 13.0 0.0 0.5
12:31 8.3 4.5 77 1031.5 11.4 NW 12.1 0.0 0.5
12:32 8.3 4.5 77 1031.3 9.8 N 12.1 0.0 0.5
12:33 8.3 4.5 77 1031.4 9.8 NW 12.1 0.0 0.5
12:34 8.3 4.5 77 1031.4 12.1 NW 12.1 0.0 0.6
12:35 8.3 4.5 77 1031.5 10.7 NW 12.1 1.5 0.6
12:36 8.3 4.7 78 1031.3 11.4 N 12.1 1.5 0.6
12:37 8.3 4.7 78 1031.3 9.2 NW 12.1 1.5 0.6
12:38 8.4 4.8 78 1031.3 13.6 NW 13.6 1.5 0.6
12:39 8.4 4.8 78 1031.4 6.9 NW 13.6 1.5 0.6
12:41 8.5 4.9 78 1031.4 6.0 NW 13.6 0.0 0.6
12:42 8.5 4.9 78 1031.5 7.6 NW 13.6 0.0 0.6
12:43 8.5 4.9 78 1031.5 8.3 N 13.6 0.0 0.6
12:44 8.6 5.0 78 1031.7 9.8 NW 13.6 0.0 0.6
12:45 8.6 5.0 78 1031.5 8.3 N 13.6 0.0 0.6
12:46 8.6 4.8 77 1031.5 13.0 NW 13.6 0.0 0.6
12:47 8.6 4.8 77 1031.4 9.8 N 13.6 0.0 0.6
12:48 8.6 4.8 77 1031.4 10.7 NW 13.6 0.0 0.6
12:49 8.6 4.8 77 1031.5 6.9 NW 13.0 0.0 0.6
12:50 8.6 4.8 77 1031.4 9.2 N 13.0 0.0 0.6
12:51 8.6 4.8 77 1031.5 9.2 N 13.0 0.0 0.6
12:52 8.6 4.8 77 1031.5 8.3 N 13.0 0.0 0.6
12:53 8.6 4.8 77 1031.5 7.6 NW 13.0 0.0 0.6
12:54 8.6 4.8 77 1031.5 10.7 N 13.0 0.0 0.6
12:55 8.6 4.8 77 1031.4 10.7 N 13.0 0.0 0.6
12:56 8.6 4.8 77 1031.3 7.6 S 10.7 0.0 0.6
12:57 8.6 4.8 77 1031.4 9.8 NW 10.7 0.0 0.6
12:58 8.6 4.8 77 1031.3 11.4 N 11.4 0.0 0.6
13:00 8.6 4.8 77 1031.2 9.2 NW 13.0 0.0 0.6
13:01 8.6 4.8 77 1031.3 9.2 NW 13.0 0.0 0.6
13:02 8.6 4.8 77 1031.2 9.2 NW 13.0 0.0 0.6
13:03 8.6 4.8 77 1031.2 9.2 NW 13.0 0.0 0.6
13:04 8.6 4.8 77 1031.5 9.2 NW 13.0 0.0 0.6
13:05 8.6 4.8 77 1031.6 9.2 NW 13.0 0.0 0.6
13:06 8.9 5.3 78 1031.6 10.7 W 13.0 0.0 0.6
13:07 8.9 5.1 77 1031.5 7.6 NE 13.0 0.0 0.6
13:08 8.9 5.1 77 1031.4 6.9 N 13.0 0.0 0.6
13:09 9.0 5.2 77 1031.5 9.2 NW 10.7 0.0 0.6
13:10 9.0 5.2 77 1031.4 7.6 N 10.7 0.0 0.6
13:11 9.1 5.3 77 1031.5 7.6 NW 10.7 0.0 0.6
13:13 9.1 5.3 77 1031.4 8.3 NW 10.7 0.0 0.6
13:14 9.1 5.3 77 1031.5 9.8 N 10.7 0.0 0.6
13:15 9.2 5.4 77 1031.4 6.9 N 10.7 0.0 0.6
13:16 9.2 5.4 77 1031.4 11.4 NE 11.4 0.0 0.6
13:17 9.2 5.4 77 1031.4 6.0 N 11.4 0.0 0.6
13:18 9.3 5.5 77 1031.5 9.2 NW 11.4 0.0 0.6
13:19 9.3 5.5 77 1031.5 9.2 NW 11.4 0.0 0.6
13:20 9.3 5.5 77 1031.6 6.9 N 11.4 0.0 0.6
13:21 9.4 5.4 76 1031.7 11.4 N 11.4 0.0 0.6
13:22 9.4 5.4 76 1031.6 9.2 NW 11.4 0.0 0.6
13:23 9.4 5.2 75 1031.6 9.8 NW 12.1 0.0 0.6
13:24 9.4 5.2 75 1031.5 4.5 W 12.1 0.0 0.6
13:25 9.3 5.1 75 1031.5 13.6 N 13.6 0.0 0.6
13:26 9.3 5.1 75 1031.5 7.6 NW 13.6 0.0 0.6
13:27 9.3 5.1 75 1031.5 9.8 N 13.6 0.0 0.6
13:28 9.3 5.1 75 1031.5 11.4 NW 13.6 0.0 0.6
13:30 9.3 5.1 75 1031.6 9.2 W 13.6 0.0 0.6
13:31 9.3 5.3 76 1031.5 7.6 NW 13.6 0.0 0.6
13:32 9.4 5.4 76 1031.5 9.8 NW 13.6 0.0 0.6
13:33 9.4 5.6 77 1031.5 9.2 N 13.6 0.0 0.6
13:34 9.5 5.5 76 1031.5 7.6 NW 13.6 0.0 0.6
13:35 9.6 5.6 76 1031.6 6.0 WNW 13.6 0.0 0.6
13:36 9.7 5.7 76 1031.5 7.6 NW 11.4 0.0 0.6
13:37 9.8 5.8 76 1031.6 8.3 N 11.4 0.0 0.6
13:38 9.8 5.8 76 1031.6 8.3 NE 11.4 0.0 0.6
13:39 9.8 5.6 75 1031.4 8.3 NW 11.4 0.0 0.6
13:40 9.7 5.5 75 1031.4 6.0 NW 9.8 0.0 0.6
13:41 9.7 5.7 76 1031.5 9.2 WNW 9.8 0.0 0.6
13:42 9.7 5.7 76 1031.4 7.6 N 9.2 0.0 0.6
13:43 9.6 5.4 75 1031.4 10.7 W 10.7 0.0 0.6
13:44 9.6 5.4 75 1031.5 8.3 N 10.7 0.0 0.6
13:45 9.5 5.3 75 1031.5 6.9 N 10.7 0.0 0.6
13:46 9.5 5.3 75 1031.4 11.4 W 11.4 0.0 0.6
13:48 9.4 5.2 75 1031.7 11.4 N 11.4 0.0 0.6
13:49 9.4 5.2 75 1031.7 9.2 N 11.4 0.0 0.6
13:50 9.4 5.0 74 1031.6 8.3 NE 11.4 0.0 0.6
13:51 9.4 5.2 75 1031.4 9.8 N 11.4 0.0 0.6
13:52 9.4 5.0 74 1031.5 6.9 NE 11.4 0.0 0.6
13:53 9.4 5.0 74 1031.4 9.2 NW 11.4 0.0 0.6
13:54 9.4 5.2 75 1031.4 9.2 NW 11.4 0.0 0.6
13:55 9.5 5.3 75 1031.5 8.3 W 11.4 0.0 0.6
13:56 9.5 5.3 75 1031.5 8.3 N 11.4 0.0 0.6
13:57 9.6 5.4 75 1031.6 9.2 N 11.4 0.0 0.6
13:58 9.6 5.4 75 1031.5 9.8 N 9.8 0.0 0.6
13:59 9.6 5.4 75 1031.7 9.2 NW 14.5 0.0 0.6
14:01 9.7 5.5 75 1031.6 6.9 N 14.5 0.0 0.6
14:02 9.7 5.5 75 1031.6 10.7 NW 14.5 0.0 0.6
14:03 9.8 5.6 75 1031.6 6.9 NW 14.5 0.0 0.6
14:04 9.8 5.6 75 1031.7 5.4 N 14.5 0.0 0.6
14:05 9.9 5.7 75 1031.5 7.6 NE 14.5 0.0 0.6
14:06 9.9 5.7 75 1031.7 7.6 NW 14.5 0.0 0.6
14:07 9.9 5.5 74 1031.8 9.2 NW 14.5 0.0 0.6
14:08 9.9 5.5 74 1031.7 12.1 NE 14.5 0.0 0.6
14:09 9.9 5.3 73 1031.6 8.3 NW 12.1 0.0 0.6
14:11 9.9 5.5 74 1031.7 6.0 N 12.1 0.0 0.6
14:12 9.9 5.5 74 1031.7 6.9 NW 12.1 0.0 0.6
14:14 10.0 5.6 74 1031.7 9.8 NW 12.1 0.0 0.6
14:15 10.0 5.4 73 1031.6 9.8 NW 12.1 0.0 0.6
14:17 9.9 5.1 72 1031.8 9.8 S 12.1 0.0 0.6
14:18 9.8 5.2 73 1031.8 9.2 NW 12.1 0.0 0.6
14:19 9.8 5.0 72 1031.7 7.6 NW 11.4 0.0 0.6
14:20 9.7 4.9 72 1031.5 9.2 NW 11.4 0.0 0.6
14:21 9.7 4.9 72 1031.7 10.7 NW 11.4 0.0 0.6
14:22 9.6 5.0 73 1031.8 6.0 NW 11.4 0.0 0.6
14:23 9.6 5.0 73 1031.6 7.6 NW 11.4 0.0 0.6
14:24 9.6 5.0 73 1031.7 9.2 N 11.4 0.0 0.6
14:25 9.6 5.0 73 1031.7 6.0 N 11.4 0.0 0.6
14:26 9.7 5.1 73 1031.9 7.6 N 11.4 0.0 0.6
14:27 9.7 5.3 74 1031.7 9.2 NW 10.7 0.0 0.6
14:29 9.7 5.3 74 1031.7 8.3 NW 10.7 0.0 0.6
14:30 9.9 5.3 73 1031.7 12.1 NW 12.1 0.0 0.6
14:31 9.9 5.3 73 1031.7 11.4 N 12.1 0.0 0.6
14:32 9.8 5.2 73 1031.7 12.1 NW 12.1 0.0 0.6
14:33 9.8 5.2 73 1031.7 10.7 NW 13.0 0.0 0.6
14:34 9.8 5.2 73 1031.7 10.7 NW 13.0 0.0 0.6
14:35 9.7 5.1 73 1031.7 9.8 N 13.0 0.0 0.6
14:36 9.7 4.9 72 1031.7 9.8 NW 13.0 0.0 0.6
14:37 9.7 5.1 73 1031.7 9.8 NW 13.0 0.0 0.6
14:38 9.8 5.2 73 1031.7 5.4 NW 13.0 0.0 0.6
14:39 9.9 5.5 74 1031.7 5.4 NW 13.0 0.0 0.6
14:40 10.0 5.4 73 1031.7 7.6 N 13.0 0.0 0.6
14:41 10.0 5.4 73 1031.8 9.8 N 13.0 0.0 0.6
14:42 10.0 5.4 73 1031.7 7.6 NE 13.0 0.0 0.6
14:43 10.1 5.3 72 1031.7 7.6 W 12.1 0.0 0.6
14:44 10.1 5.3 72 1031.7 8.3 NW 12.1 0.0 0.6
14:45 10.1 5.3 72 1031.7 7.6 NW 12.1 0.0 0.6
14:46 10.1 5.3 72 1031.7 9.2 N 12.1 0.0 0.6
14:47 10.1 5.5 73 1031.8 9.2 N 12.1 0.0 0.6
14:48 10.0 5.2 72 1031.7 12.1 N 12.1 0.0 0.6
14:50 10.0 5.2 72 1031.6 6.9 N 12.1 0.0 0.6
14:51 10.0 5.2 72 1031.8 9.2 NW 12.1 0.0 0.6
14:52 10.0 5.2 72 1031.7 9.2 NW 12.1 0.0 0.6
14:53 10.0 5.2 72 1031.7 9.2 NW 12.1 0.0 0.6
14:54 10.0 5.2 72 1031.7 9.2 NW 12.1 0.0 0.6
14:55 10.0 5.0 71 1031.7 13.0 NW 13.0 0.0 0.6
14:56 9.9 4.9 71 1031.8 6.9 NW 13.0 0.0 0.6
14:57 9.9 4.9 71 1031.7 9.8 NW 13.0 0.0 0.6
14:58 9.9 4.9 71 1031.8 13.0 NW 13.0 0.0 0.6
14:59 9.9 4.9 71 1031.8 9.2 NW 13.0 0.0 0.6
15:00 9.8 4.8 71 1031.9 9.2 NW 13.0 0.0 0.6
15:01 9.9 4.9 71 1031.7 5.4 NW 13.0 0.0 0.6
15:02 9.9 4.9 71 1031.7 9.2 N 13.0 0.0 0.6
15:03 9.9 4.9 71 1031.7 7.6 N 13.0 0.0 0.6
15:04 9.8 4.8 71 1031.7 11.4 NW 13.0 0.0 0.6
15:05 9.8 4.8 71 1031.8 8.3 NW 13.0 0.0 0.6
15:07 9.8 4.8 71 1031.7 11.4 N 13.0 0.0 0.6
15:08 9.7 4.5 70 1031.7 6.9 NW 13.0 0.0 0.6
15:10 9.8 5.0 72 1031.7 7.6 N 11.4 0.0 0.6
15:12 9.9 4.9 71 1031.7 5.4 N 11.4 0.0 0.6
15:14 9.9 4.7 70 1031.8 8.3 NE 11.4 0.0 0.6
15:16 9.7 4.5 70 1031.8 8.3 NW 11.4 0.0 0.6
15:19 9.7 4.5 70 1031.7 7.6 N 9.8 0.0 0.6
15:20 9.7 4.5 70 1031.6 5.4 NW 9.8 0.0 0.6
15:22 9.8 4.8 71 1031.8 6.0 NW 9.8 0.0 0.6
15:24 9.8 4.6 70 1031.7 11.4 N 11.4 0.0 0.6
15:26 9.8 4.8 71 1031.8 3.8 N 11.4 0.0 0.6
15:29 9.8 4.8 71 1031.7 3.8 N 11.4 0.0 0.6
15:31 9.8 4.8 71 1031.7 7.6 N 11.4 0.0 0.6
15:33 9.9 4.9 71 1031.8 12.1 NW 12.1 0.0 0.6
15:35 9.8 4.8 71 1031.8 11.4 NW 12.1 0.0 0.6
15:37 9.7 4.5 70 1031.8 7.6 W 12.1 0.0 0.6
15:39 9.6 4.6 71 1031.9 7.6 N 12.1 0.0 0.6
15:41 9.5 4.5 71 1031.8 8.3 N 13.0 0.0 0.6
15:44 9.5 4.5 71 1032.1 8.3 NW 13.0 0.0 0.6
15:46 9.4 4.4 71 1032.0 9.2 NW 13.0 0.0 0.6
15:48 9.5 4.5 71 1031.9 7.6 NW 13.0 0.0 0.6
15:49 9.5 4.7 72 1031.9 11.4 NW 13.0 0.0 0.6
15:50 9.5 4.5 71 1032.0 10.7 NW 13.0 0.0 0.6
15:51 9.5 4.7 72 1031.7 9.8 NW 12.1 0.0 0.6
15:52 9.5 4.5 71 1032.1 11.4 W 12.1 0.0 0.6
15:53 9.5 4.5 71 1031.9 9.8 NW 12.1 0.0 0.6
15:54 9.5 4.5 71 1032.0 9.2 NW 12.1 0.0 0.6
15:56 9.5 4.5 71 1032.0 8.3 W 12.1 0.0 0.6
15:57 9.5 4.5 71 1032.0 15.9 NW 15.9 0.0 0.6
15:58 9.5 4.5 71 1032.0 13.0 N 15.9 0.0 0.6
15:59 9.5 4.5 71 1032.0 12.1 N 15.9 0.0 0.6
16:00 9.5 4.7 72 1032.1 7.6 NW 15.9 0.0 0.6
16:01 9.5 4.5 71 1032.2 5.4 N 15.9 0.0 0.6
16:02 9.5 4.5 71 1032.1 16.8 NW 16.8 0.0 0.6
16:03 9.4 4.4 71 1032.1 9.8 N 16.8 0.0 0.6
16:04 9.4 4.4 71 1032.2 6.9 NW 16.8 0.0 0.6
16:05 9.3 4.3 71 1032.2 9.2 NW 16.8 0.0 0.6
16:06 9.3 4.5 72 1032.0 7.6 N 16.8 0.0 0.6
16:07 9.3 4.3 71 1032.1 7.6 NW 16.8 0.0 0.6
16:09 9.3 4.5 72 1032.2 8.3 NW 16.8 0.0 0.6
16:11 9.4 4.6 72 1032.2 10.7 NW 16.8 0.0 0.6
16:12 9.3 4.5 72 1032.2 11.4 N 12.1 0.0 0.6
16:14 9.3 4.5 72 1032.0 12.1 NE 12.1 0.0 0.6
16:15 9.2 4.2 71 1032.1 12.1 W 12.1 0.0 0.6
16:16 9.2 4.2 71 1032.2 7.6 NW 12.1 0.0 0.6
16:18 9.2 4.2 71 1032.1 12.1 NW 12.1 0.0 0.6
16:19 9.2 4.2 71 1032.1 7.6 N 12.1 0.0 0.6
16:20 9.2 4.4 72 1032.1 8.3 N 12.1 0.0 0.6
16:22 9.3 4.5 72 1032.1 8.3 N 12.1 0.0 0.6
16:23 9.3 4.3 71 1032.2 9.8 N 12.1 0.0 0.6
16:24 9.2 4.4 72 1032.1 3.8 N 12.1 0.0 0.6
16:25 9.2 4.4 72 1032.2 9.2 N 12.1 0.0 0.6
16:26 9.2 4.4 72 1032.1 9.2 N 12.1 0.0 0.6
16:27 9.2 4.2 71 1032.1 9.2 N 12.1 0.0 0.6
16:28 9.2 4.2 71 1032.1 4.5 NW 12.1 0.0 0.6
16:30 9.2 4.2 71 1032.1 12.1 NW 12.1 0.0 0.6
16:31 9.1 4.1 71 1032.1 6.0 NW 12.1 0.0 0.6
16:32 9.1 4.3 72 1032.1 7.6 N 12.1 0.0 0.6
16:33 9.2 4.4 72 1032.2 6.0 N 12.1 0.0 0.6
16:34 9.2 4.4 72 1032.2 5.4 N 12.1 0.0 0.6
16:36 9.2 4.4 72 1032.2 3.1 N 12.1 0.0 0.6
16:37 9.3 4.5 72 1032.2 8.3 NW 12.1 0.0 0.6
16:38 9.3 4.5 72 1032.3 8.3 N 12.1 0.0 0.6
16:39 9.3 4.5 72 1032.2 8.3 N 12.1 0.0 0.6
16:40 9.4 4.6 72 1032.3 9.8 NW 12.1 0.0 0.6
16:41 9.3 4.3 71 1032.0 9.8 NW 9.8 0.0 0.6
16:42 9.3 4.3 71 1032.0 9.2 NW 9.8 0.0 0.6
16:43 9.3 4.3 71 1032.2 7.6 NW 9.8 0.0 0.6
16:44 9.2 4.2 71 1032.2 4.5 NW 9.8 0.0 0.6
16:45 9.2 4.2 71 1032.2 7.6 NW 9.8 0.0 0.6
16:46 9.2 4.4 72 1032.2 8.3 N 9.8 0.0 0.6
16:47 9.2 4.2 71 1032.2 6.9 NW 9.8 0.0 0.6
16:48 9.2 4.2 71 1032.3 4.5 NW 9.8 0.0 0.6
16:50 9.2 4.2 71 1032.2 6.9 NW 9.8 0.0 0.6
16:51 9.2 4.2 71 1032.2 6.0 NW 9.8 0.0 0.6
16:52 9.2 4.2 71 1032.3 6.0 NW 9.8 0.0 0.6
16:53 9.2 4.2 71 1032.2 7.6 NE 9.8 0.0 0.6
16:54 9.2 4.4 72 1032.1 8.3 N 9.8 0.0 0.6
16:55 9.2 4.4 72 1032.1 6.0 N 9.8 0.0 0.6
16:56 9.3 4.3 71 1032.2 6.0 NW 9.8 0.0 0.6
16:57 9.3 4.3 71 1032.2 6.9 NW 9.8 0.0 0.6
16:58 9.3 4.3 71 1032.3 6.9 NW 9.8 0.0 0.6
16:59 9.3 4.3 71 1032.3 7.6 NW 9.8 0.0 0.6
17:00 9.3 4.3 71 1032.2 6.0 N 8.3 0.0 0.6
17:01 9.3 4.3 71 1032.2 8.3 WSW 8.3 0.0 0.6
17:02 9.3 4.3 71 1032.2 9.2 NW 9.2 0.0 0.6
17:03 9.3 4.3 71 1032.2 9.8 NW 9.8 0.0 0.6
17:04 9.2 4.2 71 1032.1 12.1 N 12.1 0.0 0.6
17:05 9.2 4.2 71 1032.2 6.9 NW 12.1 0.0 0.6
17:06 9.1 4.1 71 1032.2 5.4 NW 12.1 0.0 0.6
17:08 9.1 4.1 71 1032.2 4.5 N 12.1 0.0 0.6
17:09 9.1 4.1 71 1032.1 6.9 NW 12.1 0.0 0.6
17:10 9.1 4.1 71 1032.2 8.3 NW 12.1 0.0 0.6
17:11 9.1 4.1 71 1032.2 6.0 N 12.1 0.0 0.6
17:12 9.0 4.0 71 1032.2 5.4 NW 12.1 0.0 0.6
17:15 9.1 4.1 71 1032.1 9.2 NW 10.7 0.0 0.6
17:16 9.0 4.0 71 1032.4 8.3 NNW 9.2 0.0 0.6
17:17 9.1 4.1 71 1032.4 6.9 NW 9.2 0.0 0.6
17:18 9.0 4.0 71 1032.4 8.3 N 9.2 0.0 0.6
17:20 9.0 4.0 71 1032.4 6.9 NW 9.2 0.0 0.6
17:21 8.9 3.9 71 1032.3 5.4 NW 9.2 0.0 0.6
17:22 8.9 3.9 71 1032.5 7.6 NW 9.2 0.0 0.6
17:23 8.9 3.9 71 1032.3 6.9 NW 9.2 0.0 0.6
17:24 8.9 3.9 71 1032.4 3.1 N 9.2 0.0 0.6
17:25 8.9 3.9 71 1032.4 3.8 N 8.3 0.0 0.6
17:26 8.9 3.9 71 1032.3 4.5 NE 8.3 0.0 0.6
17:27 8.9 3.9 71 1032.3 7.6 N 8.3 0.0 0.6
17:28 8.9 3.9 71 1032.3 6.0 NW 8.3 0.0 0.6
17:30 8.9 3.9 71 1032.3 5.4 N 9.2 0.0 0.6
17:31 8.9 3.9 71 1032.4 6.9 NE 9.2 0.0 0.6
17:32 8.9 3.9 71 1032.4 3.1 N 9.2 0.0 0.6
17:33 8.9 3.9 71 1032.3 5.4 N 9.2 0.0 0.6
17:34 8.9 3.9 71 1032.6 5.4 NW 9.2 0.0 0.6
17:35 8.9 3.9 71 1032.5 5.4 NW 9.2 0.0 0.6
17:36 8.9 3.9 71 1032.5 5.4 N 9.2 0.0 0.6
17:37 8.9 3.9 71 1032.6 8.3 NW 9.2 0.0 0.6
17:38 8.8 3.8 71 1032.6 7.6 N 9.8 0.0 0.6
17:39 8.8 3.8 71 1032.6 3.8 NW 9.8 0.0 0.6
17:40 8.8 3.8 71 1032.6 4.5 NW 9.8 0.0 0.6
17:41 8.8 3.8 71 1032.7 6.9 N 9.8 0.0 0.6
17:42 8.7 3.7 71 1032.7 4.5 NW 9.8 0.0 0.6
17:43 8.7 3.7 71 1032.6 5.4 NE 9.8 0.0 0.6
17:44 8.7 3.7 71 1032.6 5.4 N 9.8 0.0 0.6
17:45 8.7 3.7 71 1032.7 3.1 N 9.8 0.0 0.6
17:46 8.7 3.7 71 1032.5 3.8 N 9.8 0.0 0.6
17:47 8.6 3.6 71 1032.6 4.5 NE 9.8 0.0 0.6
17:48 8.6 3.6 71 1032.5 3.8 N 7.6 0.0 0.6
17:49 8.6 3.6 71 1032.6 6.9 NW 7.6 0.0 0.6
17:50 8.5 3.5 71 1032.8 3.8 NW 7.6 0.0 0.6
17:52 8.5 3.5 71 1032.6 6.0 N 7.6 0.0 0.6
17:53 8.4 3.4 71 1032.5 6.9 NW 6.9 0.0 0.6
17:54 8.4 3.4 71 1032.5 6.9 NW 6.9 0.0 0.6
17:55 8.3 3.4 71 1032.6 9.2 NW 9.2 0.0 0.6
17:56 8.3 3.4 71 1032.7 9.8 NW 9.8 0.0 0.6
17:57 8.2 3.3 71 1032.6 6.0 NW 9.8 0.0 0.6
17:58 8.2 3.3 71 1032.4 4.5 NW 9.8 0.0 0.6
17:59 8.1 3.4 72 1032.6 6.0 N 9.8 0.0 0.6
18:00 8.1 3.4 72 1032.6 6.0 N 9.8 0.0 0.6
18:01 8.1 3.4 72 1032.6 6.0 N 9.8 0.0 0.6
18:02 8.1 3.4 72 1032.7 6.0 N 9.8 0.0 0.6
18:03 8.1 3.4 72 1032.6 6.0 N 9.8 0.0 0.6
18:05 7.8 3.1 72 1032.6 5.4 N 9.8 0.0 0.6
18:06 7.8 3.1 72 1032.7 6.9 NW 9.8 0.0 0.6
18:07 7.7 3.0 72 1032.7 6.9 N 6.9 0.0 0.6
18:08 7.7 3.0 72 1032.7 7.6 NW 7.6 0.0 0.6
18:09 7.6 2.9 72 1032.7 3.1 NW 7.6 0.0 0.6
18:10 7.5 2.8 72 1032.7 3.8 N 7.6 0.0 0.6
18:12 7.4 2.7 72 1032.6 3.8 N 7.6 0.0 0.6
18:13 7.3 2.6 72 1032.7 3.8 N 7.6 0.0 0.6
18:14 7.3 2.6 72 1032.6 5.4 NE 7.6 0.0 0.6
18:16 7.2 2.5 72 1032.6 5.4 N 7.6 0.0 0.6
18:17 7.1 2.4 72 1032.7 5.4 NW 7.6 0.0 0.6
18:19 7.1 2.6 73 1032.8 5.4 NW 6.0 0.0 0.6
18:20 7.0 2.5 73 1032.6 5.4 NW 6.0 0.0 0.6
18:21 6.9 2.4 73 1032.7 3.8 NW 6.0 0.0 0.6
18:22 6.9 2.4 73 1032.8 6.9 NW 6.9 0.0 0.6
18:23 6.8 2.3 73 1032.8 3.8 N 6.9 0.0 0.6
18:25 6.7 2.2 73 1032.7 4.5 NE 6.9 0.0 0.6
18:26 6.6 2.1 73 1032.8 3.1 N 6.9 0.0 0.6
18:27 6.6 2.1 73 1032.9 2.2 N 6.9 0.0 0.6
18:28 6.6 2.1 73 1033.0 3.1 N 6.9 0.0 0.6
18:29 6.5 2.2 74 1033.0 2.2 N 6.9 0.0 0.6
18:30 6.4 2.1 74 1033.1 3.1 N 6.9 0.0 0.6
18:31 6.4 2.1 74 1033.0 3.1 N 6.9 0.0 0.6
18:32 6.4 2.1 74 1033.0 3.8 N 6.9 0.0 0.6
18:33 6.3 2.0 74 1033.0 2.2 N 4.5 0.0 0.6
18:34 6.3 2.0 74 1032.9 3.1 N 4.5 0.0 0.6
18:35 6.2 1.9 74 1033.0 1.6 N 4.5 0.0 0.6
18:36 6.2 1.9 74 1032.9 3.1 N 4.5 0.0 0.6
18:37 6.1 1.8 74 1032.9 3.1 N 4.5 0.0 0.6
18:38 6.1 1.8 74 1033.1 3.8 NW 4.5 0.0 0.6
18:39 6.0 1.9 75 1033.1 3.1 N 4.5 0.0 0.6
18:41 6.0 1.9 75 1033.2 2.2 N 4.5 0.0 0.6
18:42 5.9 1.8 75 1033.1 3.1 N 4.5 0.0 0.6
18:43 5.9 1.8 75 1033.1 5.4 N 5.4 0.0 0.6
18:44 5.9 1.8 75 1033.0 3.1 N 5.4 0.0 0.6
18:45 5.8 1.7 75 1033.1 5.4 N 5.4 0.0 0.6
18:46 5.8 1.7 75 1033.1 2.2 N 5.4 0.0 0.6
18:47 5.7 1.6 75 1033.1 2.2 N 5.4 0.0 0.6
18:48 5.7 1.6 75 1033.1 4.5 NW 5.4 0.0 0.6
18:49 5.7 1.6 75 1033.2 2.2 NW 5.4 0.0 0.6
18:50 5.6 1.7 76 1033.2 4.5 NE 5.4 0.0 0.6
18:51 5.6 1.7 76 1032.9 3.8 N 5.4 0.0 0.6
18:52 5.6 1.7 76 1033.2 3.1 N 5.4 0.0 0.6
18:53 5.5 1.6 76 1033.1 4.5 N 5.4 0.0 0.6
18:54 5.5 1.6 76 1033.2 4.5 N 5.4 0.0 0.6
18:55 5.5 1.6 76 1033.2 6.0 N 6.0 0.0 0.6
18:56 5.4 1.5 76 1033.2 4.5 NE 6.0 0.0 0.6
18:57 5.4 1.5 76 1033.1 2.2 NE 6.0 0.0 0.6
18:58 5.3 1.4 76 1033.2 4.5 NE 6.0 0.0 0.6
18:59 5.3 1.6 77 1033.1 3.8 N 6.0 0.0 0.6
19:00 5.3 1.6 77 1033.2 3.8 N 6.0 0.0 0.6
19:01 5.3 1.6 77 1033.3 3.8 N 6.0 0.0 0.6
19:02 5.3 1.6 77 1033.4 3.8 N 6.0 0.0 0.6
19:03 5.3 1.6 77 1033.3 3.8 N 6.0 0.0 0.6
19:04 5.3 1.6 77 1033.4 3.8 N 6.0 0.0 0.6
19:05 5.1 1.4 77 1033.3 3.1 N 6.0 0.0 0.6
19:07 5.1 1.4 77 1033.4 2.2 N 4.5 0.0 0.6
19:08 5.1 1.4 77 1033.5 3.1 N 4.5 0.0 0.6
19:09 5.1 1.4 77 1033.5 3.1 N 4.5 0.0 0.6
19:10 5.0 1.3 77 1033.5 3.8 N 3.8 0.0 0.6
19:11 5.0 1.5 78 1033.4 3.8 N 3.8 0.0 0.6
19:12 5.0 1.5 78 1033.5 4.5 NE 4.5 0.0 0.6
19:13 5.0 1.5 78 1033.6 4.5 NE 4.5 0.0 0.6
19:14 4.9 1.4 78 1033.4 4.5 NE 4.5 0.0 0.6
19:15 4.9 1.4 78 1033.4 3.8 NE 4.5 0.0 0.6
19:16 4.9 1.4 78 1033.4 3.8 NE 4.5 0.0 0.6
19:17 4.9 1.4 78 1033.5 3.8 N 4.5 0.0 0.6
19:18 4.8 1.3 78 1033.5 3.8 N 4.5 0.0 0.6
19:19 4.8 1.5 79 1033.5 3.8 N 4.5 0.0 0.6
19:21 4.7 1.4 79 1033.4 4.5 E 4.5 0.0 0.6
19:22 4.7 1.4 79 1033.4 3.1 N 4.5 0.0 0.6
19:23 4.7 1.4 79 1033.4 3.8 N 4.5 0.0 0.6
19:24 4.7 1.4 79 1033.3 3.8 NE 4.5 0.0 0.6
19:25 4.6 1.3 79 1033.4 4.5 NE 4.5 0.0 0.6
19:26 4.6 1.3 79 1033.4 3.8 N 4.5 0.0 0.6
19:28 4.5 1.2 79 1033.3 3.8 NE 4.5 0.0 0.6
19:29 4.5 1.2 79 1033.4 3.1 NE 4.5 0.0 0.6
19:30 4.5 1.4 80 1033.4 2.2 N 4.5 0.0 0.6
19:31 4.5 1.4 80 1033.4 3.1 N 4.5 0.0 0.6
19:32 4.4 1.3 80 1033.5 3.1 N 4.5 0.0 0.6
19:33 4.4 1.3 80 1033.2 3.1 N 4.5 0.0 0.6
19:35 4.4 1.3 80 1033.5 3.1 N 4.5 0.0 0.6
19:36 4.4 1.3 80 1033.5 2.2 N 4.5 0.0 0.6
19:37 4.3 1.2 80 1033.5 2.2 N 3.8 0.0 0.6
19:38 4.3 1.2 80 1033.6 3.1 N 3.8 0.0 0.6
19:39 4.3 1.2 80 1033.6 1.6 N 3.8 0.0 0.6
19:40 4.3 1.2 80 1033.5 2.2 N 3.1 0.0 0.6
19:41 4.2 1.1 80 1033.6 3.1 N 3.1 0.0 0.6
19:43 4.2 1.2 81 1033.7 3.1 N 3.1 0.0 0.6
19:44 4.2 1.2 81 1033.6 2.2 N 3.1 0.0 0.6
19:45 4.2 1.2 81 1033.7 1.6 N 3.1 0.0 0.6
19:46 4.2 1.2 81 1033.9 3.1 N 3.1 0.0 0.6
19:47 4.2 1.2 81 1033.7 2.2 N 3.1 0.0 0.6
19:48 4.1 1.1 81 1033.7 2.2 N 3.1 0.0 0.6
19:49 4.1 1.1 81 1033.7 2.2 N 3.1 0.0 0.6
19:50 4.1 1.1 81 1033.7 3.8 N 3.8 0.0 0.6
19:51 4.1 1.1 81 1033.8 3.8 N 3.8 0.0 0.6
19:53 4.1 1.3 82 1033.7 3.1 N 3.8 0.0 0.6
19:54 4.1 1.3 82 1033.7 3.1 N 3.8 0.0 0.6
19:55 4.1 1.3 82 1033.8 2.2 N 3.8 0.0 0.6
19:56 4.1 1.3 82 1033.7 3.8 N 3.8 0.0 0.6
19:57 4.0 1.2 82 1033.8 3.1 N 3.8 0.0 0.6
19:58 4.0 1.2 82 1033.7 2.2 N 3.8 0.0 0.6
19:59 4.0 1.2 82 1033.7 2.2 N 3.8 0.0 0.6
20:00 4.0 1.2 82 1033.7 2.2 N 3.8 0.0 0.6
20:01 4.0 1.2 82 1033.8 2.2 N 3.8 0.0 0.6
20:03 4.0 1.2 82 1033.8 2.2 N 3.8 0.0 0.6
20:04 4.0 1.2 82 1033.9 2.2 N 3.8 0.0 0.6
20:05 3.9 1.3 83 1034.0 1.6 N 3.8 0.0 0.6
20:06 3.9 1.3 83 1033.9 3.1 N 3.1 0.0 0.6
20:07 3.9 1.3 83 1033.7 1.6 N 3.1 0.0 0.6
20:08 3.9 1.3 83 1033.8 3.8 N 3.8 0.0 0.6
20:09 3.9 1.3 83 1033.7 2.2 N 3.8 0.0 0.6
20:10 3.8 1.2 83 1033.9 1.6 N 3.8 0.0 0.6
20:12 3.8 1.2 83 1033.7 3.1 N 3.8 0.0 0.6
20:14 3.8 1.2 83 1033.7 2.2 N 3.8 0.0 0.6
20:16 3.8 1.2 83 1033.9 1.6 N 3.8 0.0 0.6
20:17 3.7 1.1 83 1033.9 1.6 N 3.8 0.0 0.6
20:19 3.7 1.1 83 1033.7 1.6 N 3.1 0.0 0.6
20:21 3.7 1.1 83 1033.8 1.6 N 3.1 0.0 0.6
20:22 3.7 1.3 84 1033.8 2.2 N 3.1 0.0 0.6
20:23 3.7 1.3 84 1033.8 0.0 N 3.1 0.0 0.6
20:24 3.7 1.3 84 1033.9 1.6 N 2.2 0.0 0.6
20:25 3.6 1.2 84 1033.8 0.0 N 2.2 0.0 0.6
20:27 3.6 1.2 84 1033.9 1.6 N 2.2 0.0 0.6
20:28 3.6 1.2 84 1034.0 0.7 N 2.2 0.0 0.6
20:29 3.6 1.2 84 1034.0 0.0 N 2.2 0.0 0.6
20:31 3.5 1.1 84 1033.8 0.0 N 2.2 0.0 0.6
20:32 3.5 1.1 84 1033.9 0.7 N 1.6 0.0 0.6
20:33 3.4 1.0 84 1033.9 0.7 N 1.6 0.0 0.6
20:34 3.4 1.0 84 1033.8 1.6 N 1.6 0.0 0.6
20:35 3.4 1.0 84 1033.8 2.2 N 2.2 0.0 0.6
20:36 3.4 1.0 84 1033.9 3.1 N 3.1 0.0 0.6
20:38 3.3 0.9 84 1034.1 2.2 N 3.1 0.0 0.6
20:39 3.3 0.9 84 1034.0 0.7 N 3.1 0.0 0.6
20:40 3.3 0.9 84 1033.9 0.7 N 3.1 0.0 0.6
20:41 3.3 0.9 84 1034.1 1.6 N 3.1 0.0 0.6
20:42 3.2 0.8 84 1034.1 0.7 N 3.1 0.0 0.6
20:43 3.2 0.8 84 1033.8 1.6 N 3.1 0.0 0.6
20:44 3.2 0.8 84 1033.8 0.7 N 3.1 0.0 0.6
20:45 3.2 0.8 84 1033.8 1.6 N 3.1 0.0 0.6
20:46 3.2 0.8 84 1033.9 0.7 N 2.2 0.0 0.6
20:47 3.2 0.9 85 1033.9 1.6 N 2.2 0.0 0.6
20:49 3.2 0.9 85 1033.8 2.2 N 2.2 0.0 0.6
20:50 3.2 0.9 85 1034.0 1.6 N 2.2 0.0 0.6
20:51 3.2 0.9 85 1034.0 1.6 N 2.2 0.0 0.6
20:52 3.2 0.9 85 1033.9 1.6 N 2.2 0.0 0.6
20:53 3.2 0.9 85 1034.0 1.6 N 2.2 0.0 0.6
20:54 3.2 0.9 85 1033.8 1.6 N 2.2 0.0 0.6
20:55 3.2 0.9 85 1033.9 1.6 N 2.2 0.0 0.6
20:56 3.2 0.9 85 1034.0 0.7 N 2.2 0.0 0.6
20:58 3.1 0.8 85 1033.8 0.7 N 2.2 0.0 0.6
20:59 3.0 0.7 85 1034.0 0.7 N 1.6 0.0 0.6
21:00 3.0 0.7 85 1033.8 0.7 N 1.6 0.0 0.6
21:01 3.0 0.7 85 1033.9 0.7 N 1.6 0.0 0.6
21:02 3.0 0.7 85 1033.9 0.7 N 1.6 0.0 0.6
21:03 3.0 0.7 85 1033.8 0.7 N 1.6 0.0 0.6
21:04 3.0 0.7 85 1034.0 0.7 N 1.6 0.0 0.6
21:05 3.0 0.7 85 1033.8 0.7 N 0.7 0.0 0.6
21:07 3.0 0.7 85 1033.8 0.7 N 0.7 0.0 0.6
21:08 2.7 0.4 85 1033.9 0.0 N 0.7 0.0 0.6
21:09 2.7 0.4 85 1033.9 0.0 N 0.7 0.0 0.6
21:10 2.7 0.4 85 1034.0 0.0 N 0.7 0.0 0.6
21:11 2.7 0.4 85 1033.9 0.0 N 0.7 0.0 0.6
21:12 2.7 0.4 85 1033.9 0.7 N 0.7 0.0 0.6
21:13 2.6 0.3 85 1033.8 0.7 N 0.7 0.0 0.6
21:14 2.6 0.3 85 1033.9 1.6 N 1.6 0.0 0.6
21:15 2.6 0.3 85 1033.9 0.7 N 1.6 0.0 0.6
21:17 2.6 0.5 86 1033.9 0.0 N 1.6 0.0 0.6
21:18 2.6 0.5 86 1033.9 0.0 N 1.6 0.0 0.6
21:20 2.6 0.5 86 1034.1 0.7 N 1.6 0.0 0.6
21:21 2.6 0.5 86 1034.0 0.0 N 1.6 0.0 0.6
21:22 2.6 0.5 86 1034.0 0.7 N 1.6 0.0 0.6
21:23 2.6 0.5 86 1033.9 0.0 N 1.6 0.0 0.6
21:24 2.5 0.4 86 1034.0 0.0 N 1.6 0.0 0.6
21:25 2.5 0.4 86 1034.2 0.0 N 0.7 0.0 0.6
21:27 2.5 0.4 86 1034.2 0.0 N 0.7 0.0 0.6
21:28 2.5 0.4 86 1034.1 0.0 N 0.7 0.0 0.6
21:29 2.5 0.4 86 1034.1 0.0 N 0.7 0.0 0.6
21:30 2.4 0.3 86 1034.2 0.0 N 0.7 0.0 0.6
21:31 2.4 0.3 86 1034.1 0.0 N 0.7 0.0 0.6
21:32 2.4 0.3 86 1034.1 0.0 N 0.7 0.0 0.6
21:34 2.4 0.3 86 1034.1 0.0 N 0.7 0.0 0.6
21:35 2.4 0.3 86 1034.2 0.7 N 0.7 0.0 0.6
21:36 2.4 0.3 86 1034.0 0.7 N 0.7 0.0 0.6
21:37 2.4 0.5 87 1034.1 0.7 N 0.7 0.0 0.6
21:38 2.4 0.5 87 1034.2 0.7 N 0.7 0.0 0.6
21:39 2.4 0.5 87 1034.1 0.7 N 0.7 0.0 0.6
21:40 2.4 0.5 87 1034.0 0.7 N 0.7 0.0 0.6
21:41 2.4 0.5 87 1034.1 1.6 N 1.6 0.0 0.6
21:43 2.4 0.5 87 1033.9 0.7 N 1.6 0.0 0.6
21:44 2.4 0.5 87 1034.0 2.2 N 2.2 0.0 0.6
21:45 2.4 0.5 87 1033.9 1.6 N 2.2 0.0 0.6
21:46 2.4 0.5 87 1034.1 0.7 N 2.2 0.0 0.6
21:47 2.4 0.5 87 1033.8 0.7 N 2.2 0.0 0.6
21:48 2.4 0.5 87 1034.0 0.7 N 2.2 0.0 0.6
21:49 2.4 0.5 87 1034.0 0.0 N 2.2 0.0 0.6
21:50 2.4 0.5 87 1034.0 0.0 N 2.2 0.0 0.6
21:52 2.3 0.4 87 1033.8 0.0 N 2.2 0.0 0.6
21:53 2.3 0.4 87 1033.8 0.0 N 2.2 0.0 0.6
21:54 2.3 0.4 87 1033.9 0.0 N 2.2 0.0 0.6
21:55 2.2 0.3 87 1033.9 0.0 N 0.7 0.0 0.6
21:56 2.2 0.3 87 1034.0 0.0 N 0.7 0.0 0.6
21:57 2.2 0.3 87 1034.0 0.0 N 0.7 0.0 0.6
21:58 2.1 0.2 87 1033.9 0.0 N 0.7 0.0 0.6
21:59 2.1 0.2 87 1033.9 0.7 N 0.7 0.0 0.6
22:00 2.1 0.2 87 1034.0 0.0 N 0.7 0.0 0.6
22:02 2.1 0.2 87 1034.0 0.0 N 0.7 0.0 0.6
22:03 2.1 0.2 87 1033.9 0.0 N 0.7 0.0 0.6
22:04 2.1 0.2 87 1033.7 0.0 N 0.7 0.0 0.6
22:05 2.1 0.2 87 1034.1 0.0 N 0.7 0.0 0.6
22:06 2.1 0.2 87 1033.9 0.0 N 0.7 0.0 0.6
22:07 2.1 0.2 87 1033.9 0.0 N 0.7 0.0 0.6
22:08 1.9 0.0 87 1034.0 0.0 N 0.7 0.0 0.6
22:09 1.9 0.0 87 1033.9 0.7 N 0.7 0.0 0.6
22:11 1.9 0.0 87 1034.0 0.0 N 0.7 0.0 0.6
22:13 1.9 0.0 87 1033.9 0.0 N 0.7 0.0 0.6
22:14 1.8 -0.1 87 1034.0 0.0 N 0.7 0.0 0.6
22:16 1.8 -0.1 87 1033.9 0.7 N 0.7 0.0 0.6
22:18 1.8 0.0 88 1034.1 0.7 N 0.7 0.0 0.6
22:20 1.8 0.0 88 1033.8 1.6 N 1.6 0.0 0.6
22:22 1.8 0.0 88 1033.8 1.6 N 1.6 0.0 0.6
22:23 1.8 0.0 88 1033.8 0.7 N 1.6 0.0 0.6
22:25 1.8 0.0 88 1033.9 0.7 N 1.6 0.0 0.6
22:27 1.8 0.0 88 1034.0 0.0 N 1.6 0.0 0.6
22:30 1.8 0.0 88 1033.9 0.0 N 1.6 0.0 0.6
22:31 1.8 0.0 88 1033.8 0.0 N 1.6 0.0 0.6
22:33 1.8 0.0 88 1033.9 0.0 N 0.7 0.0 0.6
22:34 1.8 0.0 88 1033.9 0.0 N 0.7 0.0 0.6
22:36 1.8 0.2 89 1033.9 0.7 N 0.7 0.0 0.6
22:37 1.8 0.2 89 1034.0 1.6 N 1.6 0.0 0.6
22:38 1.7 0.1 89 1033.8 1.6 N 1.6 0.0 0.6
22:39 1.7 0.1 89 1033.9 1.6 N 1.6 0.0 0.6
22:40 1.7 0.1 89 1033.9 1.6 N 1.6 0.0 0.6
22:42 1.7 0.1 89 1034.0 0.7 N 1.6 0.0 0.6
22:43 1.7 0.1 89 1034.0 1.6 N 1.6 0.0 0.6
22:45 1.7 0.1 89 1034.1 1.6 N 1.6 0.0 0.6
22:46 1.7 0.1 89 1034.1 1.6 N 1.6 0.0 0.6
22:47 1.8 0.2 89 1034.0 0.7 N 1.6 0.0 0.6
22:49 1.8 0.2 89 1034.0 1.6 N 1.6 0.0 0.6
22:50 1.8 0.2 89 1034.0 0.7 N 1.6 0.0 0.6
22:51 1.8 0.2 89 1034.0 1.6 N 1.6 0.0 0.6
22:52 1.8 0.2 89 1034.0 1.6 N 1.6 0.0 0.6
22:53 1.8 0.2 89 1034.0 1.6 N 1.6 0.0 0.6
22:55 1.8 0.3 90 1034.2 1.6 N 1.6 0.0 0.6
22:56 1.8 0.3 90 1034.2 2.2 N 2.2 0.0 0.6
22:57 1.8 0.3 90 1034.1 1.6 N 2.2 0.0 0.6
22:58 1.8 0.3 90 1034.1 1.6 N 2.2 0.0 0.6
22:59 1.8 0.3 90 1034.0 1.6 N 2.2 0.0 0.6
23:00 1.8 0.3 90 1034.1 1.6 N 2.2 0.0 0.6
23:01 1.8 0.3 90 1034.0 1.6 N 2.2 0.0 0.6
23:02 1.8 0.3 90 1034.1 1.6 N 2.2 0.0 0.6
23:04 1.8 0.3 90 1034.2 1.6 N 2.2 0.0 0.6
23:05 1.8 0.3 90 1034.1 1.6 N 2.2 0.0 0.6
23:06 1.9 0.4 90 1034.1 0.7 N 2.2 0.0 0.6
23:07 1.9 0.4 90 1034.1 0.7 N 1.6 0.0 0.6
23:09 1.9 0.4 90 1034.2 0.0 N 1.6 0.0 0.6
23:10 1.9 0.4 90 1034.3 0.0 N 1.6 0.0 0.6
23:11 1.9 0.4 90 1034.2 0.0 N 1.6 0.0 0.6
23:12 1.9 0.6 91 1034.2 0.7 N 1.6 0.0 0.6
23:13 1.9 0.6 91 1034.2 0.7 N 1.6 0.0 0.6
23:14 1.9 0.6 91 1034.2 0.7 N 1.6 0.0 0.6
23:15 1.9 0.6 91 1034.2 1.6 N 1.6 0.0 0.6
23:17 1.9 0.6 91 1034.2 1.6 N 1.6 0.0 0.6
23:18 1.9 0.6 91 1034.2 1.6 N 1.6 0.0 0.6
23:19 1.9 0.6 91 1034.2 2.2 N 2.2 0.0 0.6
23:20 1.9 0.6 91 1034.2 2.2 N 2.2 0.0 0.6
23:21 2.0 0.7 91 1034.0 2.2 N 2.2 0.0 0.6
23:23 2.0 0.7 91 1034.2 1.6 N 2.2 0.0 0.6
23:24 2.0 0.7 91 1034.3 1.6 N 2.2 0.0 0.6
23:25 2.0 0.7 91 1034.4 1.6 N 2.2 0.0 0.6
23:26 2.0 0.7 91 1034.3 1.6 N 2.2 0.0 0.6
23:27 2.1 0.8 91 1034.2 1.6 N 2.2 0.0 0.6
23:28 2.1 0.8 91 1034.3 1.6 N 2.2 0.0 0.6
23:29 2.1 0.8 91 1034.4 0.7 N 2.2 0.0 0.6
23:31 2.1 0.8 91 1034.4 0.7 N 2.2 0.0 0.6
23:32 2.1 0.8 91 1034.4 0.7 N 2.2 0.0 0.6
23:33 2.1 0.8 91 1034.5 0.7 N 2.2 0.0 0.6
23:34 2.1 0.8 91 1034.7 0.7 N 2.2 0.0 0.6
23:35 2.1 0.9 92 1034.5 2.2 N 2.2 0.0 0.6
23:36 2.1 0.9 92 1034.3 1.6 N 2.2 0.0 0.6
23:37 2.1 0.9 92 1034.4 1.6 N 2.2 0.0 0.6
23:38 2.1 0.9 92 1034.3 2.2 N 2.2 0.0 0.6
23:39 2.1 0.9 92 1034.4 1.6 N 2.2 0.0 0.6
23:41 2.2 1.0 92 1034.4 2.2 N 2.2 0.0 0.6
23:42 2.1 0.9 92 1034.4 1.6 N 2.2 0.0 0.6
23:43 2.2 1.0 92 1034.5 1.6 N 2.2 0.0 0.6
23:44 2.2 1.0 92 1034.3 1.6 N 2.2 0.0 0.6
23:45 2.2 1.0 92 1034.4 1.6 N 2.2 0.0 0.6
23:46 2.2 1.0 92 1034.5 0.7 N 2.2 0.0 0.6
23:47 2.2 1.0 92 1034.4 0.7 N 2.2 0.0 0.6
23:48 2.2 1.0 92 1034.5 0.7 N 2.2 0.0 0.6
23:50 2.2 1.0 92 1034.6 0.0 N 2.2 0.0 0.6
23:51 2.2 1.0 92 1034.5 0.0 N 2.2 0.0 0.6
23:52 2.2 1.0 92 1034.5 0.7 N 1.6 0.0 0.6
23:53 2.2 1.0 92 1034.4 1.6 N 1.6 0.0 0.6
23:54 2.2 1.0 92 1034.4 0.7 N 1.6 0.0 0.6
23:55 2.2 1.0 92 1034.4 0.7 N 1.6 0.0 0.6
23:56 2.2 1.0 92 1034.6 1.6 N 1.6 0.0 0.6
23:57 2.2 1.0 92 1034.4 1.6 N 1.6 0.0 0.6
23:59 2.2 1.0 92 1034.5 0.7 N 1.6 0.0 0.6

UK - WEATHER STATION TOPSITES - UK World Weather Websites

This is a private weather station, never base important decisions or events on data from this weather station. Although every effort has been made to make the data as accurate as possible it does not meet MetOffice standards. It is proved as a guide of local weather conditions. We accept no liability for any loss which may arise from use of the data.

Copyright © Carnkie Weather 2009 - 2018.